Wetterdaten: Donnerstag, 26.09.2019
Datum Zeit Temp. Aussen Temp. o. S. +5cm Feuchte Auss Luftdruck Regen Sonnenschein Regendauer Solar Windben Empfang
26.09.2019 00:00 15,9 C 14,4 C 13,9 C 91 % 1007,0 hPa 0,0 l/m 0 min 0 min 0 W/m 3,2 km/h (1 Bft) 97,87 %
26.09.2019 00:02 15,9 C 14,4 C 13,9 C 91 % 1007,0 hPa 0,0 l/m 0 min 0 min 0 W/m 6,4 km/h (2 Bft) 97,56 %
26.09.2019 00:04 15,9 C 14,4 C 13,9 C 91 % 1007,0 hPa 0,0 l/m 0 min 0 min 0 W/m 9,7 km/h (2 Bft) 97,87 %
26.09.2019 00:08 15,9 C 14,4 C 13,9 C 91 % 1007,0 hPa 0,0 l/m 0 min 0 min 0 W/m 6,4 km/h (2 Bft) 98,92 %
26.09.2019 00:10 15,9 C 14,4 C 13,9 C 91 % 1007,0 hPa 0,0 l/m 0 min 0 min 0 W/m 12,9 km/h (3 Bft) 100,00 %
26.09.2019 00:12 15,9 C 14,4 C 13,9 C 91 % 1007,0 hPa 0,0 l/m 0 min 0 min 0 W/m 6,4 km/h (2 Bft) 100,00 %
26.09.2019 00:14 15,9 C 15,0 C 13,9 C 91 % 1007,0 hPa 0,0 l/m 0 min 0 min 0 W/m 6,4 km/h (2 Bft) 100,00 %
26.09.2019 00:16 15,9 C 15,0 C 13,9 C 91 % 1007,0 hPa 0,0 l/m 0 min 0 min 0 W/m 6,4 km/h (2 Bft) 97,87 %
26.09.2019 00:18 15,9 C 15,0 C 13,9 C 91 % 1006,9 hPa 0,0 l/m 0 min 0 min 0 W/m 12,9 km/h (3 Bft) 97,87 %
26.09.2019 00:20 15,9 C 15,0 C 14,4 C 91 % 1006,9 hPa 0,0 l/m 0 min 0 min 0 W/m 25,7 km/h (4 Bft) 97,83 %
26.09.2019 00:22 15,9 C 15,0 C 14,4 C 91 % 1006,9 hPa 0,0 l/m 0 min 0 min 0 W/m 9,7 km/h (2 Bft) 97,87 %
26.09.2019 00:24 15,9 C 15,0 C 14,4 C 91 % 1006,9 hPa 0,0 l/m 0 min 0 min 0 W/m 12,9 km/h (3 Bft) 93,62 %
26.09.2019 00:26 15,9 C 15,0 C 14,4 C 91 % 1006,9 hPa 0,0 l/m 0 min 0 min 0 W/m 12,9 km/h (3 Bft) 97,87 %
26.09.2019 00:28 15,9 C 15,6 C 14,4 C 91 % 1007,0 hPa 0,0 l/m 0 min 0 min 0 W/m 12,9 km/h (3 Bft) 95,74 %
26.09.2019 00:30 15,9 C 15,6 C 14,4 C 91 % 1007,0 hPa 0,0 l/m 0 min 0 min 0 W/m 12,9 km/h (3 Bft) 95,74 %
26.09.2019 00:32 15,9 C 15,6 C 15,0 C 91 % 1007,0 hPa 0,0 l/m 0 min 0 min 0 W/m 6,4 km/h (2 Bft) 97,83 %
26.09.2019 00:34 15,9 C 15,6 C 15,0 C 91 % 1007,0 hPa 0,0 l/m 0 min 0 min 0 W/m 9,7 km/h (2 Bft) 95,74 %
26.09.2019 00:36 15,9 C 15,6 C 15,0 C 91 % 1007,0 hPa 0,0 l/m 0 min 0 min 0 W/m 9,7 km/h (2 Bft) 95,74 %
26.09.2019 00:38 15,9 C 15,6 C 15,0 C 91 % 1007,0 hPa 0,0 l/m 0 min 0 min 0 W/m 12,9 km/h (3 Bft) 95,74 %
26.09.2019 00:40 15,9 C 15,6 C 15,0 C 91 % 1007,0 hPa 0,0 l/m 0 min 0 min 0 W/m 12,9 km/h (3 Bft) 95,74 %
26.09.2019 00:42 15,9 C 15,6 C 15,0 C 91 % 1007,0 hPa 0,0 l/m 0 min 0 min 0 W/m 9,7 km/h (2 Bft) 95,74 %
26.09.2019 00:44 15,9 C 15,6 C 15,0 C 91 % 1007,0 hPa 0,0 l/m 0 min 0 min 0 W/m 9,7 km/h (2 Bft) 97,83 %
26.09.2019 00:46 15,9 C 15,6 C 15,0 C 91 % 1007,0 hPa 0,0 l/m 0 min 0 min 0 W/m 12,9 km/h (3 Bft) 95,74 %
26.09.2019 00:48 15,9 C 15,0 C 15,0 C 91 % 1007,0 hPa 0,0 l/m 0 min 0 min 0 W/m 12,9 km/h (3 Bft) 93,62 %
26.09.2019 00:50 15,9 C 15,0 C 15,0 C 90 % 1007,0 hPa 0,0 l/m 0 min 0 min 0 W/m 12,9 km/h (3 Bft) 95,74 %
26.09.2019 00:52 15,9 C 15,0 C 15,0 C 90 % 1007,0 hPa 0,0 l/m 0 min 0 min 0 W/m 9,7 km/h (2 Bft) 95,74 %
26.09.2019 00:54 15,9 C 15,0 C 15,0 C 90 % 1007,0 hPa 0,0 l/m 0 min 0 min 0 W/m 16,1 km/h (3 Bft) 95,65 %
26.09.2019 00:56 15,9 C 15,0 C 15,0 C 90 % 1007,0 hPa 0,0 l/m 0 min 0 min 0 W/m 12,9 km/h (3 Bft) 93,62 %
26.09.2019 00:58 15,9 C 15,0 C 15,0 C 90 % 1007,0 hPa 0,0 l/m 0 min 0 min 0 W/m 16,1 km/h (3 Bft) 93,62 %
26.09.2019 01:00 15,9 C 15,0 C 15,0 C 90 % 1007,0 hPa 0,0 l/m 0 min 0 min 0 W/m 9,7 km/h (2 Bft) 97,87 %
26.09.2019 01:02 15,9 C 15,0 C 15,0 C 90 % 1007,0 hPa 0,0 l/m 0 min 0 min 0 W/m 9,7 km/h (2 Bft) 95,74 %
26.09.2019 01:04 15,9 C 15,0 C 15,0 C 90 % 1007,0 hPa 0,0 l/m 0 min 0 min 0 W/m 9,7 km/h (2 Bft) 97,87 %
26.09.2019 01:06 15,9 C 15,0 C 15,0 C 90 % 1007,0 hPa 0,0 l/m 0 min 0 min 0 W/m 9,7 km/h (2 Bft) 97,83 %
26.09.2019 01:08 15,9 C 15,0 C 14,4 C 90 % 1007,0 hPa 0,0 l/m 0 min 0 min 0 W/m 6,4 km/h (2 Bft) 97,87 %
26.09.2019 01:10 15,9 C 15,0 C 14,4 C 90 % 1007,0 hPa 0,0 l/m 0 min 0 min 0 W/m 9,7 km/h (2 Bft) 97,87 %
26.09.2019 01:12 15,9 C 15,0 C 15,0 C 90 % 1007,0 hPa 0,0 l/m 0 min 0 min 0 W/m 9,7 km/h (2 Bft) 93,62 %
26.09.2019 01:14 15,9 C 15,0 C 14,4 C 90 % 1007,1 hPa 0,0 l/m 0 min 0 min 0 W/m 12,9 km/h (3 Bft) 97,87 %
26.09.2019 01:16 15,9 C 15,0 C 14,4 C 90 % 1007,1 hPa 0,0 l/m 0 min 0 min 0 W/m 9,7 km/h (2 Bft) 97,87 %
26.09.2019 01:18 15,9 C 15,0 C 15,0 C 90 % 1007,1 hPa 0,0 l/m 0 min 0 min 0 W/m 12,9 km/h (3 Bft) 95,65 %
26.09.2019 01:20 15,9 C 15,0 C 15,0 C 90 % 1007,1 hPa 0,0 l/m 0 min 0 min 0 W/m 12,9 km/h (3 Bft) 97,87 %
26.09.2019 01:22 15,9 C 15,0 C 15,0 C 90 % 1007,1 hPa 0,0 l/m 0 min 0 min 0 W/m 12,9 km/h (3 Bft) 97,87 %
26.09.2019 01:24 15,9 C 15,0 C 15,0 C 90 % 1007,2 hPa 0,0 l/m 0 min 0 min 0 W/m 6,4 km/h (2 Bft) 95,74 %
26.09.2019 01:26 15,9 C 15,0 C 15,0 C 90 % 1007,1 hPa 0,0 l/m 0 min 0 min 0 W/m 9,7 km/h (2 Bft) 97,87 %
26.09.2019 01:28 15,9 C 15,0 C 15,0 C 90 % 1007,2 hPa 0,0 l/m 0 min 0 min 0 W/m 9,7 km/h (2 Bft) 97,87 %
26.09.2019 01:30 15,9 C 15,0 C 15,0 C 90 % 1007,2 hPa 0,0 l/m 0 min 0 min 0 W/m 12,9 km/h (3 Bft) 97,83 %
26.09.2019 01:32 15,9 C 15,0 C 15,0 C 90 % 1007,2 hPa 0,0 l/m 0 min 0 min 0 W/m 12,9 km/h (3 Bft) 97,87 %
26.09.2019 01:34 15,9 C 15,0 C 15,0 C 90 % 1007,2 hPa 0,0 l/m 0 min 0 min 0 W/m 6,4 km/h (2 Bft) 97,87 %
26.09.2019 01:36 15,9 C 15,0 C 15,0 C 90 % 1007,2 hPa 0,0 l/m 0 min 0 min 0 W/m 9,7 km/h (2 Bft) 97,87 %
26.09.2019 01:38 15,9 C 15,0 C 14,4 C 90 % 1007,2 hPa 0,0 l/m 0 min 0 min 0 W/m 12,9 km/h (3 Bft) 97,87 %
26.09.2019 01:40 15,9 C 15,0 C 14,4 C 90 % 1007,2 hPa 0,0 l/m 0 min 0 min 0 W/m 9,7 km/h (2 Bft) 97,87 %
26.09.2019 01:42 15,9 C 15,0 C 15,0 C 90 % 1007,2 hPa 0,0 l/m 0 min 0 min 0 W/m 12,9 km/h (3 Bft) 97,83 %
26.09.2019 01:44 15,9 C 15,0 C 15,0 C 90 % 1007,2 hPa 0,0 l/m 0 min 0 min 0 W/m 12,9 km/h (3 Bft) 97,87 %
26.09.2019 01:46 15,8 C 15,0 C 15,0 C 90 % 1007,2 hPa 0,0 l/m 0 min 0 min 0 W/m 16,1 km/h (3 Bft) 95,74 %
26.09.2019 01:48 15,9 C 15,0 C 15,0 C 90 % 1007,2 hPa 0,0 l/m 0 min 0 min 0 W/m 9,7 km/h (2 Bft) 97,87 %
26.09.2019 01:50 15,9 C 15,0 C 14,4 C 90 % 1007,2 hPa 0,0 l/m 0 min 0 min 0 W/m 6,4 km/h (2 Bft) 95,74 %
26.09.2019 01:52 15,8 C 15,0 C 14,4 C 90 % 1007,3 hPa 0,0 l/m 0 min 0 min 0 W/m 12,9 km/h (3 Bft) 97,87 %
26.09.2019 01:54 15,8 C 15,0 C 14,4 C 90 % 1007,3 hPa 0,0 l/m 0 min 0 min 0 W/m 9,7 km/h (2 Bft) 100,00 %
26.09.2019 01:56 15,8 C 15,0 C 14,4 C 90 % 1007,3 hPa 0,0 l/m 0 min 0 min 0 W/m 12,9 km/h (3 Bft) 97,87 %
26.09.2019 01:58 15,8 C 15,0 C 14,4 C 90 % 1007,3 hPa 0,0 l/m 0 min 0 min 0 W/m 9,7 km/h (2 Bft) 97,87 %
26.09.2019 02:00 15,8 C 15,0 C 14,4 C 90 % 1007,3 hPa 0,0 l/m 0 min 0 min 0 W/m 9,7 km/h (2 Bft) 97,87 %
26.09.2019 02:02 15,8 C 15,0 C 14,4 C 90 % 1007,4 hPa 0,0 l/m 0 min 0 min 0 W/m 9,7 km/h (2 Bft) 97,87 %
26.09.2019 02:04 15,8 C 15,0 C 14,4 C 90 % 1007,4 hPa 0,0 l/m 0 min 0 min 0 W/m 6,4 km/h (2 Bft) 95,74 %
26.09.2019 02:06 15,8 C 15,0 C 14,4 C 89 % 1007,3 hPa 0,0 l/m 0 min 0 min 0 W/m 12,9 km/h (3 Bft) 97,83 %
26.09.2019 02:08 15,8 C 15,0 C 14,4 C 89 % 1007,3 hPa 0,0 l/m 0 min 0 min 0 W/m 12,9 km/h (3 Bft) 97,87 %
26.09.2019 02:10 15,8 C 15,0 C 14,4 C 89 % 1007,4 hPa 0,0 l/m 0 min 0 min 0 W/m 12,9 km/h (3 Bft) 97,87 %
26.09.2019 02:12 15,8 C 15,0 C 14,4 C 89 % 1007,4 hPa 0,0 l/m 0 min 0 min 0 W/m 12,9 km/h (3 Bft) 97,87 %
26.09.2019 02:14 15,8 C 14,4 C 14,4 C 89 % 1007,4 hPa 0,0 l/m 0 min 0 min 0 W/m 9,7 km/h (2 Bft) 97,87 %
26.09.2019 02:16 15,8 C 14,4 C 14,4 C 89 % 1007,4 hPa 0,0 l/m 0 min 0 min 0 W/m 9,7 km/h (2 Bft) 97,83 %
26.09.2019 02:18 15,7 C 14,4 C 14,4 C 89 % 1007,4 hPa 0,0 l/m 0 min 0 min 0 W/m 9,7 km/h (2 Bft) 94,44 %
26.09.2019 02:20 15,7 C 14,4 C 14,4 C 89 % 1007,5 hPa 0,0 l/m 0 min 0 min 0 W/m 9,7 km/h (2 Bft) 98,28 %
26.09.2019 02:22 15,7 C 15,0 C 14,4 C 89 % 1007,5 hPa 0,0 l/m 0 min 0 min 0 W/m 12,9 km/h (3 Bft) 97,87 %
26.09.2019 02:24 15,7 C 14,4 C 14,4 C 89 % 1007,5 hPa 0,0 l/m 0 min 0 min 0 W/m 9,7 km/h (2 Bft) 97,87 %
26.09.2019 02:26 15,7 C 15,0 C 14,4 C 89 % 1007,4 hPa 0,0 l/m 0 min 0 min 0 W/m 9,7 km/h (2 Bft) 97,87 %
26.09.2019 02:28 15,7 C 15,0 C 14,4 C 89 % 1007,4 hPa 0,0 l/m 0 min 0 min 0 W/m 6,4 km/h (2 Bft) 97,83 %
26.09.2019 02:30 15,7 C 15,0 C 14,4 C 89 % 1007,5 hPa 0,0 l/m 0 min 0 min 0 W/m 9,7 km/h (2 Bft) 97,87 %
26.09.2019 02:32 15,7 C 15,0 C 14,4 C 89 % 1007,5 hPa 0,0 l/m 0 min 0 min 0 W/m 6,4 km/h (2 Bft) 97,87 %
26.09.2019 02:34 15,7 C 15,0 C 14,4 C 89 % 1007,5 hPa 0,0 l/m 0 min 0 min 0 W/m 6,4 km/h (2 Bft) 97,87 %
26.09.2019 02:36 15,7 C 15,0 C 14,4 C 89 % 1007,5 hPa 0,0 l/m 0 min 0 min 0 W/m 9,7 km/h (2 Bft) 95,74 %
26.09.2019 02:38 15,7 C 15,0 C 14,4 C 90 % 1007,5 hPa 0,0 l/m 0 min 0 min 0 W/m 6,4 km/h (2 Bft) 100,00 %
26.09.2019 02:40 15,7 C 15,0 C 14,4 C 90 % 1007,5 hPa 0,0 l/m 0 min 0 min 0 W/m 9,7 km/h (2 Bft) 100,00 %
26.09.2019 02:42 15,6 C 15,0 C 14,4 C 90 % 1007,5 hPa 0,0 l/m 0 min 0 min 0 W/m 16,1 km/h (3 Bft) 100,00 %
26.09.2019 02:44 15,6 C 15,0 C 14,4 C 90 % 1007,5 hPa 0,0 l/m 0 min 0 min 0 W/m 9,7 km/h (2 Bft) 97,87 %
26.09.2019 02:46 15,6 C 15,0 C 14,4 C 90 % 1007,4 hPa 0,0 l/m 0 min 0 min 0 W/m 9,7 km/h (2 Bft) 100,00 %
26.09.2019 02:48 15,6 C 15,0 C 14,4 C 90 % 1007,5 hPa 0,0 l/m 0 min 0 min 0 W/m 9,7 km/h (2 Bft) 100,00 %
26.09.2019 02:50 15,6 C 15,0 C 14,4 C 90 % 1007,5 hPa 0,0 l/m 0 min 0 min 0 W/m 6,4 km/h (2 Bft) 100,00 %
26.09.2019 02:52 15,6 C 15,0 C 14,4 C 90 % 1007,5 hPa 0,0 l/m 0 min 0 min 0 W/m 6,4 km/h (2 Bft) 100,00 %
26.09.2019 02:54 15,6 C 15,0 C 14,4 C 90 % 1007,5 hPa 0,0 l/m 0 min 0 min 0 W/m 6,4 km/h (2 Bft) 97,87 %
26.09.2019 02:56 15,6 C 15,0 C 14,4 C 90 % 1007,5 hPa 0,0 l/m 0 min 0 min 0 W/m 9,7 km/h (2 Bft) 98,28 %
26.09.2019 02:58 15,6 C 15,0 C 14,4 C 90 % 1007,5 hPa 0,0 l/m 0 min 0 min 0 W/m 9,7 km/h (2 Bft) 97,87 %
26.09.2019 03:00 15,6 C 15,0 C 14,4 C 90 % 1007,5 hPa 0,0 l/m 0 min 0 min 0 W/m 9,7 km/h (2 Bft) 93,62 %
26.09.2019 03:02 15,6 C 15,0 C 14,4 C 90 % 1007,5 hPa 0,0 l/m 0 min 0 min 0 W/m 12,9 km/h (3 Bft) 95,74 %
26.09.2019 03:04 15,6 C 15,0 C 14,4 C 90 % 1007,5 hPa 0,0 l/m 0 min 0 min 0 W/m 9,7 km/h (2 Bft) 97,83 %
26.09.2019 03:06 15,6 C 15,0 C 14,4 C 90 % 1007,5 hPa 0,0 l/m 0 min 0 min 0 W/m 9,7 km/h (2 Bft) 95,74 %
26.09.2019 03:08 15,6 C 15,0 C 14,4 C 90 % 1007,5 hPa 0,0 l/m 0 min 0 min 0 W/m 9,7 km/h (2 Bft) 97,14 %
26.09.2019 03:10 15,6 C 15,0 C 14,4 C 90 % 1007,4 hPa 0,0 l/m 0 min 0 min 0 W/m 9,7 km/h (2 Bft) 96,61 %
26.09.2019 03:12 15,6 C 15,0 C 14,4 C 90 % 1007,5 hPa 0,0 l/m 0 min 0 min 0 W/m 12,9 km/h (3 Bft) 97,87 %
26.09.2019 03:14 15,6 C 15,0 C 14,4 C 90 % 1007,4 hPa 0,0 l/m 0 min 0 min 0 W/m 9,7 km/h (2 Bft) 94,29 %
26.09.2019 03:16 15,6 C 15,0 C 14,4 C 90 % 1007,4 hPa 0,0 l/m 0 min 0 min 0 W/m 9,7 km/h (2 Bft) 97,87 %
26.09.2019 03:18 15,6 C 15,0 C 14,4 C 90 % 1007,4 hPa 0,0 l/m 0 min 0 min 0 W/m 12,9 km/h (3 Bft) 96,55 %
26.09.2019 03:20 15,6 C 15,0 C 14,4 C 90 % 1007,4 hPa 0,0 l/m 0 min 0 min 0 W/m 6,4 km/h (2 Bft) 97,87 %
26.09.2019 03:22 15,6 C 15,0 C 14,4 C 90 % 1007,4 hPa 0,0 l/m 0 min 0 min 0 W/m 12,9 km/h (3 Bft) 97,87 %
26.09.2019 03:24 15,6 C 15,0 C 14,4 C 90 % 1007,3 hPa 0,0 l/m 0 min 0 min 0 W/m 6,4 km/h (2 Bft) 95,74 %
26.09.2019 03:26 15,6 C 15,0 C 14,4 C 90 % 1007,3 hPa 0,0 l/m 0 min 0 min 0 W/m 6,4 km/h (2 Bft) 95,74 %
26.09.2019 03:28 15,6 C 15,0 C 14,4 C 90 % 1007,4 hPa 0,0 l/m 0 min 0 min 0 W/m 6,4 km/h (2 Bft) 97,83 %
26.09.2019 03:30 15,6 C 15,0 C 14,4 C 90 % 1007,4 hPa 0,0 l/m 0 min 0 min 0 W/m 6,4 km/h (2 Bft) 97,87 %
26.09.2019 03:32 15,7 C 15,0 C 14,4 C 90 % 1007,5 hPa 0,0 l/m 0 min 0 min 0 W/m 6,4 km/h (2 Bft) 94,29 %
26.09.2019 03:34 15,6 C 15,0 C 14,4 C 90 % 1007,5 hPa 0,0 l/m 0 min 0 min 0 W/m 9,7 km/h (2 Bft) 95,74 %
26.09.2019 03:36 15,6 C 15,0 C 14,4 C 90 % 1007,4 hPa 0,0 l/m 0 min 0 min 0 W/m 9,7 km/h (2 Bft) 93,22 %
26.09.2019 03:38 15,6 C 15,0 C 14,4 C 90 % 1007,4 hPa 0,0 l/m 0 min 0 min 0 W/m 9,7 km/h (2 Bft) 97,83 %
26.09.2019 03:40 15,6 C 15,0 C 14,4 C 90 % 1007,4 hPa 0,0 l/m 0 min 0 min 0 W/m 12,9 km/h (3 Bft) 97,87 %
26.09.2019 03:42 15,6 C 15,0 C 14,4 C 90 % 1007,4 hPa 0,0 l/m 0 min 0 min 0 W/m 6,4 km/h (2 Bft) 95,74 %
26.09.2019 03:44 15,6 C 15,0 C 14,4 C 90 % 1007,4 hPa 0,0 l/m 0 min 0 min 0 W/m 9,7 km/h (2 Bft) 95,74 %
26.09.2019 03:46 15,6 C 15,0 C 14,4 C 90 % 1007,4 hPa 0,0 l/m 0 min 0 min 0 W/m 9,7 km/h (2 Bft) 100,00 %
26.09.2019 03:48 15,6 C 15,0 C 14,4 C 90 % 1007,3 hPa 0,0 l/m 0 min 0 min 0 W/m 12,9 km/h (3 Bft) 96,61 %
26.09.2019 03:50 15,6 C 15,0 C 14,4 C 90 % 1007,3 hPa 0,0 l/m 0 min 0 min 0 W/m 12,9 km/h (3 Bft) 95,65 %
26.09.2019 03:52 15,7 C 15,0 C 14,4 C 90 % 1007,4 hPa 0,0 l/m 0 min 0 min 0 W/m 16,1 km/h (3 Bft) 93,62 %
26.09.2019 03:54 15,7 C 15,0 C 14,4 C 90 % 1007,4 hPa 0,0 l/m 0 min 0 min 0 W/m 12,9 km/h (3 Bft) 97,14 %
26.09.2019 03:56 15,7 C 15,0 C 14,4 C 90 % 1007,5 hPa 0,0 l/m 0 min 0 min 0 W/m 16,1 km/h (3 Bft) 97,87 %
26.09.2019 03:58 15,7 C 15,0 C 14,4 C 90 % 1007,5 hPa 0,0 l/m 0 min 0 min 0 W/m 9,7 km/h (2 Bft) 97,87 %
26.09.2019 04:00 15,7 C 15,0 C 14,4 C 90 % 1007,5 hPa 0,0 l/m 0 min 0 min 0 W/m 12,9 km/h (3 Bft) 96,61 %
26.09.2019 04:05 15,7 C 15,0 C 15,0 C 90 % 1007,5 hPa 0,0 l/m 0 min 0 min 0 W/m 12,9 km/h (3 Bft) 98,55 %
26.09.2019 04:06 15,7 C 15,0 C 15,0 C 90 % 1007,5 hPa 0,0 l/m 0 min 0 min 0 W/m 6,4 km/h (2 Bft) 100,00 %
26.09.2019 04:08 15,7 C 15,0 C 15,0 C 90 % 1007,5 hPa 0,0 l/m 0 min 0 min 0 W/m 6,4 km/h (2 Bft) 98,31 %
26.09.2019 04:10 15,7 C 15,0 C 15,0 C 90 % 1007,6 hPa 0,0 l/m 0 min 0 min 0 W/m 12,9 km/h (3 Bft) 95,74 %
26.09.2019 04:12 15,7 C 15,0 C 15,0 C 90 % 1007,6 hPa 0,0 l/m 0 min 0 min 0 W/m 16,1 km/h (3 Bft) 97,87 %
26.09.2019 04:14 15,7 C 15,0 C 15,0 C 90 % 1007,6 hPa 0,0 l/m 0 min 0 min 0 W/m 6,4 km/h (2 Bft) 97,83 %
26.09.2019 04:16 15,7 C 15,0 C 15,0 C 90 % 1007,6 hPa 0,0 l/m 0 min 0 min 0 W/m 9,7 km/h (2 Bft) 97,67 %
26.09.2019 04:18 15,7 C 15,0 C 15,0 C 90 % 1007,6 hPa 0,0 l/m 0 min 0 min 0 W/m 12,9 km/h (3 Bft) 97,83 %
26.09.2019 04:20 15,7 C 15,0 C 15,0 C 90 % 1007,6 hPa 0,0 l/m 0 min 0 min 0 W/m 12,9 km/h (3 Bft) 95,74 %
26.09.2019 04:22 15,7 C 15,0 C 15,0 C 90 % 1007,6 hPa 0,0 l/m 0 min 0 min 0 W/m 12,9 km/h (3 Bft) 97,87 %
26.09.2019 04:24 15,7 C 15,0 C 14,4 C 90 % 1007,6 hPa 0,0 l/m 0 min 0 min 0 W/m 9,7 km/h (2 Bft) 97,87 %
26.09.2019 04:26 15,7 C 15,0 C 15,0 C 90 % 1007,6 hPa 0,0 l/m 0 min 0 min 0 W/m 12,9 km/h (3 Bft) 93,62 %
26.09.2019 04:28 15,8 C 15,0 C 15,0 C 90 % 1007,7 hPa 0,0 l/m 0 min 0 min 0 W/m 19,3 km/h (3 Bft) 97,83 %
26.09.2019 04:30 15,8 C 15,0 C 15,0 C 90 % 1007,6 hPa 0,0 l/m 0 min 0 min 0 W/m 16,1 km/h (3 Bft) 98,00 %
26.09.2019 04:32 15,8 C 15,0 C 15,0 C 90 % 1007,6 hPa 0,0 l/m 0 min 0 min 0 W/m 16,1 km/h (3 Bft) 97,96 %
26.09.2019 04:34 15,8 C 15,0 C 15,0 C 90 % 1007,6 hPa 0,0 l/m 0 min 0 min 0 W/m 6,4 km/h (2 Bft) 97,87 %
26.09.2019 04:36 15,8 C 15,0 C 15,0 C 90 % 1007,6 hPa 0,0 l/m 0 min 0 min 0 W/m 9,7 km/h (2 Bft) 95,65 %
26.09.2019 04:38 15,8 C 15,0 C 14,4 C 90 % 1007,6 hPa 0,0 l/m 0 min 0 min 0 W/m 6,4 km/h (2 Bft) 97,87 %
26.09.2019 04:40 15,8 C 15,0 C 14,4 C 90 % 1007,6 hPa 0,0 l/m 0 min 0 min 0 W/m 12,9 km/h (3 Bft) 100,00 %
26.09.2019 04:42 15,8 C 15,0 C 14,4 C 90 % 1007,6 hPa 0,0 l/m 0 min 0 min 0 W/m 9,7 km/h (2 Bft) 100,00 %
26.09.2019 04:44 15,8 C 15,0 C 14,4 C 89 % 1007,6 hPa 0,0 l/m 0 min 0 min 0 W/m 12,9 km/h (3 Bft) 100,00 %
26.09.2019 04:46 15,8 C 15,0 C 14,4 C 89 % 1007,7 hPa 0,0 l/m 0 min 0 min 0 W/m 16,1 km/h (3 Bft) 100,00 %
26.09.2019 04:48 15,8 C 15,0 C 15,0 C 89 % 1007,7 hPa 0,0 l/m 0 min 0 min 0 W/m 12,9 km/h (3 Bft) 97,92 %
26.09.2019 04:50 15,8 C 15,0 C 14,4 C 89 % 1007,7 hPa 0,0 l/m 0 min 0 min 0 W/m 9,7 km/h (2 Bft) 100,00 %
26.09.2019 04:52 15,8 C 15,0 C 14,4 C 89 % 1007,6 hPa 0,0 l/m 0 min 0 min 0 W/m 9,7 km/h (2 Bft) 100,00 %
26.09.2019 04:54 15,8 C 15,0 C 14,4 C 89 % 1007,6 hPa 0,0 l/m 0 min 0 min 0 W/m 9,7 km/h (2 Bft) 100,00 %
26.09.2019 04:56 15,8 C 15,0 C 14,4 C 89 % 1007,7 hPa 0,0 l/m 0 min 0 min 0 W/m 9,7 km/h (2 Bft) 100,00 %
26.09.2019 04:58 15,8 C 15,0 C 14,4 C 89 % 1007,6 hPa 0,0 l/m 0 min 0 min 0 W/m 16,1 km/h (3 Bft) 97,87 %
26.09.2019 05:00 15,8 C 15,0 C 14,4 C 89 % 1007,7 hPa 0,0 l/m 0 min 0 min 0 W/m 9,7 km/h (2 Bft) 100,00 %
26.09.2019 05:02 15,8 C 15,0 C 14,4 C 89 % 1007,6 hPa 0,0 l/m 0 min 0 min 0 W/m 12,9 km/h (3 Bft) 100,00 %
26.09.2019 05:04 15,8 C 15,0 C 14,4 C 89 % 1007,6 hPa 0,0 l/m 0 min 0 min 0 W/m 6,4 km/h (2 Bft) 97,96 %
26.09.2019 05:06 15,8 C 15,0 C 14,4 C 89 % 1007,6 hPa 0,0 l/m 0 min 0 min 0 W/m 9,7 km/h (2 Bft) 97,87 %
26.09.2019 05:08 15,8 C 15,0 C 14,4 C 89 % 1007,7 hPa 0,0 l/m 0 min 0 min 0 W/m 12,9 km/h (3 Bft) 97,87 %
26.09.2019 05:10 15,8 C 15,0 C 14,4 C 89 % 1007,8 hPa 0,0 l/m 0 min 0 min 0 W/m 6,4 km/h (2 Bft) 95,92 %
26.09.2019 05:12 15,8 C 15,0 C 14,4 C 89 % 1007,8 hPa 0,0 l/m 0 min 0 min 0 W/m 6,4 km/h (2 Bft) 97,83 %
26.09.2019 05:14 15,8 C 15,0 C 14,4 C 89 % 1007,7 hPa 0,0 l/m 0 min 0 min 0 W/m 6,4 km/h (2 Bft) 97,87 %
26.09.2019 05:16 15,8 C 15,0 C 14,4 C 89 % 1007,8 hPa 0,0 l/m 0 min 0 min 0 W/m 9,7 km/h (2 Bft) 93,62 %
26.09.2019 05:18 15,8 C 15,0 C 14,4 C 89 % 1007,8 hPa 0,0 l/m 0 min 0 min 0 W/m 9,7 km/h (2 Bft) 97,87 %
26.09.2019 05:20 15,8 C 15,0 C 14,4 C 89 % 1007,8 hPa 0,0 l/m 0 min 0 min 0 W/m 9,7 km/h (2 Bft) 100,00 %
26.09.2019 05:22 15,8 C 15,0 C 14,4 C 89 % 1007,8 hPa 0,0 l/m 0 min 0 min 0 W/m 9,7 km/h (2 Bft) 97,87 %
26.09.2019 05:24 15,7 C 15,0 C 14,4 C 89 % 1007,8 hPa 0,0 l/m 0 min 0 min 0 W/m 9,7 km/h (2 Bft) 97,83 %
26.09.2019 05:26 15,7 C 15,0 C 14,4 C 89 % 1007,8 hPa 0,0 l/m 0 min 0 min 0 W/m 12,9 km/h (3 Bft) 97,87 %
26.09.2019 05:28 15,7 C 15,0 C 14,4 C 89 % 1007,8 hPa 0,0 l/m 0 min 0 min 0 W/m 12,9 km/h (3 Bft) 97,87 %
26.09.2019 05:30 15,7 C 15,0 C 14,4 C 89 % 1007,8 hPa 0,0 l/m 0 min 0 min 0 W/m 12,9 km/h (3 Bft) 97,62 %
26.09.2019 05:32 15,7 C 15,0 C 14,4 C 89 % 1007,8 hPa 0,0 l/m 0 min 0 min 0 W/m 9,7 km/h (2 Bft) 95,74 %
26.09.2019 05:34 15,7 C 15,0 C 14,4 C 89 % 1007,8 hPa 0,0 l/m 0 min 0 min 0 W/m 12,9 km/h (3 Bft) 93,62 %
26.09.2019 05:36 15,7 C 15,0 C 14,4 C 89 % 1007,9 hPa 0,0 l/m 0 min 0 min 0 W/m 9,7 km/h (2 Bft) 95,74 %
26.09.2019 05:38 15,7 C 15,0 C 14,4 C 89 % 1007,8 hPa 0,0 l/m 0 min 0 min 0 W/m 12,9 km/h (3 Bft) 93,62 %
26.09.2019 05:40 15,7 C 14,4 C 14,4 C 89 % 1007,9 hPa 0,0 l/m 0 min 0 min 0 W/m 12,9 km/h (3 Bft) 93,48 %
26.09.2019 05:42 15,7 C 14,4 C 14,4 C 89 % 1007,9 hPa 0,0 l/m 0 min 0 min 0 W/m 6,4 km/h (2 Bft) 96,00 %
26.09.2019 05:44 15,7 C 14,4 C 14,4 C 89 % 1007,9 hPa 0,0 l/m 0 min 0 min 0 W/m 6,4 km/h (2 Bft) 95,74 %
26.09.2019 05:46 15,7 C 14,4 C 13,9 C 89 % 1007,9 hPa 0,0 l/m 0 min 0 min 0 W/m 6,4 km/h (2 Bft) 93,88 %
26.09.2019 05:48 15,6 C 14,4 C 13,9 C 89 % 1007,9 hPa 0,0 l/m 0 min 0 min 0 W/m 6,4 km/h (2 Bft) 97,83 %
26.09.2019 05:50 15,6 C 14,4 C 13,9 C 88 % 1007,9 hPa 0,0 l/m 0 min 0 min 0 W/m 12,9 km/h (3 Bft) 93,02 %
26.09.2019 05:52 15,6 C 14,4 C 13,9 C 88 % 1007,9 hPa 0,0 l/m 0 min 0 min 0 W/m 6,4 km/h (2 Bft) 93,48 %
26.09.2019 05:54 15,6 C 14,4 C 13,9 C 88 % 1008,0 hPa 0,0 l/m 0 min 0 min 0 W/m 9,7 km/h (2 Bft) 95,74 %
26.09.2019 05:56 15,6 C 14,4 C 13,9 C 88 % 1008,0 hPa 0,0 l/m 0 min 0 min 0 W/m 9,7 km/h (2 Bft) 94,00 %
26.09.2019 05:58 15,5 C 14,4 C 13,9 C 88 % 1007,9 hPa 0,0 l/m 0 min 0 min 0 W/m 9,7 km/h (2 Bft) 95,92 %
26.09.2019 06:00 15,5 C 14,4 C 13,9 C 88 % 1008,0 hPa 0,0 l/m 0 min 0 min 0 W/m 19,3 km/h (3 Bft) 95,65 %
26.09.2019 06:02 15,4 C 14,4 C 13,9 C 88 % 1007,9 hPa 0,0 l/m 0 min 0 min 0 W/m 12,9 km/h (3 Bft) 97,87 %
26.09.2019 06:04 15,4 C 14,4 C 13,9 C 88 % 1008,0 hPa 0,0 l/m 0 min 0 min 0 W/m 12,9 km/h (3 Bft) 93,62 %
26.09.2019 06:08 15,4 C 13,9 C 13,9 C 88 % 1007,9 hPa 0,0 l/m 0 min 0 min 0 W/m 6,4 km/h (2 Bft) 96,81 %
26.09.2019 06:10 15,4 C 13,9 C 13,9 C 88 % 1007,9 hPa 0,0 l/m 0 min 0 min 0 W/m 9,7 km/h (2 Bft) 97,83 %
26.09.2019 06:12 15,3 C 13,9 C 13,9 C 88 % 1008,0 hPa 0,0 l/m 0 min 0 min 0 W/m 6,4 km/h (2 Bft) 95,74 %
26.09.2019 06:14 15,3 C 13,9 C 13,3 C 88 % 1008,0 hPa 0,0 l/m 0 min 0 min 0 W/m 6,4 km/h (2 Bft) 95,74 %
26.09.2019 06:16 15,3 C 13,9 C 13,3 C 88 % 1008,0 hPa 0,0 l/m 0 min 0 min 0 W/m 9,7 km/h (2 Bft) 95,74 %
26.09.2019 06:18 15,3 C 13,9 C 13,9 C 88 % 1008,0 hPa 0,0 l/m 0 min 0 min 0 W/m 9,7 km/h (2 Bft) 93,62 %
26.09.2019 06:20 15,2 C 13,9 C 13,9 C 89 % 1008,1 hPa 0,0 l/m 0 min 0 min 0 W/m 9,7 km/h (2 Bft) 100,00 %
26.09.2019 06:22 15,2 C 13,9 C 13,9 C 88 % 1008,1 hPa 0,0 l/m 0 min 0 min 0 W/m 9,7 km/h (2 Bft) 97,83 %
26.09.2019 06:24 15,2 C 14,4 C 13,9 C 89 % 1008,1 hPa 0,0 l/m 0 min 0 min 0 W/m 9,7 km/h (2 Bft) 100,00 %
26.09.2019 06:26 15,2 C 14,4 C 13,9 C 89 % 1008,0 hPa 0,0 l/m 0 min 0 min 0 W/m 6,4 km/h (2 Bft) 97,87 %
26.09.2019 06:28 15,2 C 14,4 C 13,9 C 89 % 1008,1 hPa 0,0 l/m 0 min 0 min 0 W/m 3,2 km/h (1 Bft) 100,00 %
26.09.2019 06:30 15,1 C 14,4 C 13,9 C 89 % 1008,1 hPa 0,0 l/m 0 min 0 min 0 W/m 6,4 km/h (2 Bft) 97,87 %
26.09.2019 06:32 15,1 C 14,4 C 13,9 C 89 % 1008,1 hPa 0,0 l/m 0 min 0 min 0 W/m 9,7 km/h (2 Bft) 100,00 %
26.09.2019 06:34 15,1 C 14,4 C 13,9 C 89 % 1008,1 hPa 0,0 l/m 0 min 0 min 0 W/m 3,2 km/h (1 Bft) 97,83 %
26.09.2019 06:36 15,1 C 14,4 C 13,9 C 89 % 1008,1 hPa 0,0 l/m 0 min 0 min 0 W/m 12,9 km/h (3 Bft) 97,67 %
26.09.2019 06:38 15,1 C 14,4 C 13,9 C 89 % 1008,1 hPa 0,0 l/m 0 min 0 min 0 W/m 6,4 km/h (2 Bft) 97,83 %
26.09.2019 06:40 15,1 C 14,4 C 13,9 C 89 % 1008,1 hPa 0,0 l/m 0 min 0 min 0 W/m 12,9 km/h (3 Bft) 98,00 %
26.09.2019 06:42 15,1 C 14,4 C 13,9 C 89 % 1008,1 hPa 0,0 l/m 0 min 0 min 0 W/m 3,2 km/h (1 Bft) 100,00 %
26.09.2019 06:44 15,1 C 14,4 C 13,9 C 89 % 1008,1 hPa 0,0 l/m 0 min 0 min 0 W/m 6,4 km/h (2 Bft) 100,00 %
26.09.2019 06:46 15,0 C 14,4 C 13,9 C 89 % 1008,1 hPa 0,0 l/m 0 min 0 min 0 W/m 6,4 km/h (2 Bft) 97,83 %
26.09.2019 06:48 15,0 C 14,4 C 13,9 C 90 % 1008,1 hPa 0,0 l/m 0 min 0 min 0 W/m 6,4 km/h (2 Bft) 97,62 %
26.09.2019 06:50 15,0 C 14,4 C 13,9 C 90 % 1008,1 hPa 0,0 l/m 0 min 0 min 0 W/m 6,4 km/h (2 Bft) 98,00 %
26.09.2019 06:52 15,0 C 14,4 C 13,9 C 90 % 1008,1 hPa 0,0 l/m 0 min 0 min 0 W/m 6,4 km/h (2 Bft) 95,92 %
26.09.2019 06:54 15,0 C 14,4 C 13,9 C 90 % 1008,1 hPa 0,0 l/m 0 min 0 min 0 W/m 9,7 km/h (2 Bft) 97,87 %
26.09.2019 06:56 15,0 C 14,4 C 13,9 C 90 % 1008,1 hPa 0,0 l/m 0 min 0 min 0 W/m 6,4 km/h (2 Bft) 95,74 %
26.09.2019 06:58 14,9 C 13,9 C 13,9 C 90 % 1008,1 hPa 0,0 l/m 0 min 0 min 0 W/m 6,4 km/h (2 Bft) 97,62 %
26.09.2019 07:00 15,0 C 13,9 C 13,9 C 90 % 1008,1 hPa 0,0 l/m 0 min 0 min 0 W/m 6,4 km/h (2 Bft) 97,83 %
26.09.2019 07:02 14,9 C 13,9 C 13,9 C 90 % 1008,0 hPa 0,0 l/m 0 min 0 min 0 W/m 9,7 km/h (2 Bft) 97,87 %
26.09.2019 07:04 14,9 C 13,9 C 13,9 C 90 % 1008,0 hPa 0,0 l/m 0 min 0 min 0 W/m 6,4 km/h (2 Bft) 96,00 %
26.09.2019 07:06 14,9 C 13,9 C 13,9 C 90 % 1008,0 hPa 0,0 l/m 0 min 0 min 0 W/m 9,7 km/h (2 Bft) 97,87 %
26.09.2019 07:08 14,9 C 13,9 C 13,9 C 90 % 1007,9 hPa 0,0 l/m 0 min 0 min 0 W/m 9,7 km/h (2 Bft) 97,87 %
26.09.2019 07:10 14,9 C 13,9 C 13,3 C 90 % 1008,0 hPa 0,0 l/m 0 min 0 min 0 W/m 12,9 km/h (3 Bft) 97,92 %
26.09.2019 07:12 14,9 C 13,9 C 13,3 C 90 % 1007,9 hPa 0,0 l/m 0 min 0 min 0 W/m 6,4 km/h (2 Bft) 97,87 %
26.09.2019 07:14 14,9 C 13,9 C 13,3 C 90 % 1007,9 hPa 0,0 l/m 0 min 0 min 0 W/m 6,4 km/h (2 Bft) 97,87 %
26.09.2019 07:16 14,9 C 13,9 C 13,3 C 90 % 1007,9 hPa 0,0 l/m 0 min 0 min 0 W/m 9,7 km/h (2 Bft) 97,87 %
26.09.2019 07:18 14,9 C 13,9 C 13,3 C 90 % 1007,9 hPa 0,0 l/m 0 min 0 min 0 W/m 12,9 km/h (3 Bft) 97,87 %
26.09.2019 07:20 14,9 C 13,9 C 13,3 C 90 % 1007,9 hPa 0,0 l/m 0 min 0 min 0 W/m 6,4 km/h (2 Bft) 97,87 %
26.09.2019 07:22 14,8 C 13,3 C 13,3 C 90 % 1007,9 hPa 0,0 l/m 0 min 0 min 0 W/m 9,7 km/h (2 Bft) 97,62 %
26.09.2019 07:24 14,8 C 13,3 C 13,3 C 90 % 1007,9 hPa 0,0 l/m 0 min 0 min 0 W/m 9,7 km/h (2 Bft) 95,92 %
26.09.2019 07:26 14,8 C 13,9 C 13,3 C 90 % 1007,9 hPa 0,0 l/m 0 min 0 min 0 W/m 6,4 km/h (2 Bft) 97,87 %
26.09.2019 07:28 14,8 C 13,9 C 13,3 C 90 % 1008,0 hPa 0,0 l/m 0 min 0 min 0 W/m 9,7 km/h (2 Bft) 97,87 %
26.09.2019 07:30 14,8 C 13,9 C 13,3 C 90 % 1008,1 hPa 0,0 l/m 0 min 0 min 5 W/m 9,7 km/h (2 Bft) 97,96 %
26.09.2019 07:32 14,7 C 13,9 C 13,3 C 90 % 1008,1 hPa 0,0 l/m 0 min 0 min 5 W/m 9,7 km/h (2 Bft) 95,65 %
26.09.2019 07:34 14,7 C 13,9 C 13,3 C 90 % 1008,1 hPa 0,0 l/m 0 min 0 min 6 W/m 9,7 km/h (2 Bft) 97,87 %
26.09.2019 07:36 14,7 C 13,9 C 13,3 C 90 % 1008,2 hPa 0,0 l/m 0 min 0 min 7 W/m 9,7 km/h (2 Bft) 97,87 %
26.09.2019 07:38 14,7 C 13,9 C 13,3 C 90 % 1008,2 hPa 0,0 l/m 0 min 0 min 9 W/m 6,4 km/h (2 Bft) 97,62 %
26.09.2019 07:40 14,7 C 13,9 C 13,3 C 90 % 1008,2 hPa 0,0 l/m 0 min 0 min 9 W/m 12,9 km/h (3 Bft) 98,00 %
26.09.2019 07:42 14,7 C 13,9 C 13,3 C 90 % 1008,2 hPa 0,0 l/m 0 min 0 min 10 W/m 12,9 km/h (3 Bft) 97,87 %
26.09.2019 07:44 14,7 C 13,9 C 13,3 C 91 % 1008,1 hPa 0,0 l/m 0 min 0 min 12 W/m 6,4 km/h (2 Bft) 100,00 %
26.09.2019 07:46 14,7 C 13,9 C 13,3 C 90 % 1008,1 hPa 0,0 l/m 0 min 0 min 13 W/m 6,4 km/h (2 Bft) 100,00 %
26.09.2019 07:48 14,6 C 13,9 C 13,3 C 90 % 1008,2 hPa 0,0 l/m 0 min 0 min 15 W/m 12,9 km/h (3 Bft) 100,00 %
26.09.2019 07:50 14,6 C 13,9 C 13,3 C 91 % 1008,3 hPa 0,0 l/m 0 min 0 min 14 W/m 12,9 km/h (3 Bft) 97,87 %
26.09.2019 07:52 14,6 C 13,9 C 13,9 C 91 % 1008,3 hPa 0,0 l/m 0 min 0 min 14 W/m 12,9 km/h (3 Bft) 100,00 %
26.09.2019 07:54 14,6 C 13,9 C 13,9 C 91 % 1008,4 hPa 0,0 l/m 0 min 0 min 14 W/m 19,3 km/h (3 Bft) 100,00 %
26.09.2019 07:56 14,6 C 13,9 C 13,9 C 91 % 1008,5 hPa 0,0 l/m 0 min 0 min 13 W/m 16,1 km/h (3 Bft) 97,83 %
26.09.2019 07:58 14,6 C 13,9 C 13,3 C 91 % 1008,5 hPa 0,0 l/m 0 min 0 min 12 W/m 16,1 km/h (3 Bft) 100,00 %
26.09.2019 08:00 14,7 C 13,3 C 13,3 C 91 % 1008,5 hPa 0,0 l/m 0 min 0 min 12 W/m 16,1 km/h (3 Bft) 100,00 %
26.09.2019 08:02 14,7 C 13,3 C 12,8 C 91 % 1008,4 hPa 0,0 l/m 0 min 0 min 12 W/m 19,3 km/h (3 Bft) 97,87 %
26.09.2019 08:04 14,7 C 13,3 C 12,8 C 92 % 1008,5 hPa 0,0 l/m 0 min 0 min 15 W/m 9,7 km/h (2 Bft) 97,87 %
26.09.2019 08:06 14,7 C 13,3 C 12,8 C 92 % 1008,4 hPa 0,0 l/m 0 min 0 min 17 W/m 12,9 km/h (3 Bft) 100,00 %
26.09.2019 08:08 14,7 C 13,3 C 13,3 C 92 % 1008,4 hPa 0,0 l/m 0 min 0 min 19 W/m 9,7 km/h (2 Bft) 100,00 %
26.09.2019 08:10 14,7 C 13,3 C 13,3 C 92 % 1008,4 hPa 0,0 l/m 0 min 0 min 20 W/m 6,4 km/h (2 Bft) 100,00 %
26.09.2019 08:12 14,7 C 13,9 C 13,3 C 92 % 1008,5 hPa 0,0 l/m 0 min 0 min 21 W/m 6,4 km/h (2 Bft) 100,00 %
26.09.2019 08:14 14,7 C 13,9 C 13,3 C 92 % 1008,4 hPa 0,0 l/m 0 min 0 min 21 W/m 6,4 km/h (2 Bft) 97,87 %
26.09.2019 08:16 14,7 C 13,9 C 13,3 C 92 % 1008,4 hPa 0,0 l/m 0 min 0 min 22 W/m 6,4 km/h (2 Bft) 97,87 %
26.09.2019 08:18 14,7 C 13,9 C 13,3 C 92 % 1008,4 hPa 0,0 l/m 0 min 0 min 23 W/m 9,7 km/h (2 Bft) 95,65 %
26.09.2019 08:20 14,7 C 13,9 C 13,9 C 92 % 1008,4 hPa 0,0 l/m 0 min 0 min 23 W/m 12,9 km/h (3 Bft) 97,67 %
26.09.2019 08:22 14,7 C 13,9 C 13,9 C 93 % 1008,4 hPa 0,0 l/m 0 min 0 min 25 W/m 12,9 km/h (3 Bft) 100,00 %
26.09.2019 08:24 14,7 C 13,9 C 13,9 C 93 % 1008,3 hPa 0,0 l/m 0 min 0 min 26 W/m 9,7 km/h (2 Bft) 97,87 %
26.09.2019 08:26 14,8 C 14,4 C 13,9 C 93 % 1008,3 hPa 0,0 l/m 0 min 0 min 25 W/m 6,4 km/h (2 Bft) 98,00 %
26.09.2019 08:28 14,8 C 14,4 C 13,9 C 93 % 1008,4 hPa 0,0 l/m 0 min 0 min 20 W/m 9,7 km/h (2 Bft) 97,96 %
26.09.2019 08:30 14,8 C 14,4 C 13,9 C 93 % 1008,4 hPa 0,0 l/m 0 min 0 min 17 W/m 6,4 km/h (2 Bft) 91,30 %
26.09.2019 08:32 14,8 C 13,9 C 13,9 C 93 % 1008,4 hPa 0,0 l/m 0 min 0 min 15 W/m 9,7 km/h (2 Bft) 93,62 %
26.09.2019 08:34 14,8 C 13,9 C 13,9 C 93 % 1008,4 hPa 0,0 l/m 0 min 0 min 15 W/m 9,7 km/h (2 Bft) 95,74 %
26.09.2019 08:36 14,8 C 13,9 C 13,9 C 93 % 1008,5 hPa 0,0 l/m 0 min 0 min 16 W/m 12,9 km/h (3 Bft) 95,74 %
26.09.2019 08:38 14,8 C 13,9 C 13,9 C 93 % 1008,5 hPa 0,0 l/m 0 min 0 min 18 W/m 9,7 km/h (2 Bft) 95,24 %
26.09.2019 08:40 14,8 C 13,9 C 13,3 C 93 % 1008,5 hPa 0,0 l/m 0 min 0 min 19 W/m 16,1 km/h (3 Bft) 96,00 %
26.09.2019 08:42 14,8 C 13,9 C 13,3 C 94 % 1008,5 hPa 0,0 l/m 0 min 0 min 20 W/m 9,7 km/h (2 Bft) 93,62 %
26.09.2019 08:44 14,8 C 13,9 C 13,3 C 94 % 1008,4 hPa 0,0 l/m 0 min 0 min 23 W/m 16,1 km/h (3 Bft) 93,75 %
26.09.2019 08:46 14,8 C 13,9 C 13,3 C 94 % 1008,5 hPa 0,0 l/m 0 min 0 min 25 W/m 9,7 km/h (2 Bft) 95,74 %
26.09.2019 08:48 14,8 C 13,9 C 13,3 C 94 % 1008,4 hPa 0,0 l/m 0 min 0 min 27 W/m 9,7 km/h (2 Bft) 95,74 %
26.09.2019 08:50 14,8 C 13,9 C 13,3 C 94 % 1008,5 hPa 0,0 l/m 0 min 0 min 30 W/m 16,1 km/h (3 Bft) 93,62 %
26.09.2019 08:52 14,8 C 13,9 C 13,3 C 94 % 1008,5 hPa 0,0 l/m 0 min 0 min 26 W/m 9,7 km/h (2 Bft) 93,62 %
26.09.2019 08:54 14,8 C 14,4 C 13,9 C 94 % 1008,6 hPa 0,0 l/m 0 min 0 min 24 W/m 12,9 km/h (3 Bft) 95,65 %
26.09.2019 08:56 14,8 C 14,4 C 13,9 C 94 % 1008,6 hPa 0,0 l/m 0 min 0 min 24 W/m 9,7 km/h (2 Bft) 95,74 %
26.09.2019 08:58 14,8 C 14,4 C 13,9 C 94 % 1008,6 hPa 0,0 l/m 0 min 0 min 27 W/m 12,9 km/h (3 Bft) 95,74 %
26.09.2019 09:00 14,8 C 14,4 C 13,9 C 94 % 1008,6 hPa 0,0 l/m 0 min 0 min 28 W/m 12,9 km/h (3 Bft) 97,62 %
26.09.2019 09:02 14,8 C 14,4 C 13,9 C 94 % 1008,5 hPa 0,0 l/m 0 min 0 min 41 W/m 16,1 km/h (3 Bft) 95,74 %
26.09.2019 09:04 14,9 C 14,4 C 13,9 C 94 % 1008,4 hPa 0,0 l/m 0 min 0 min 58 W/m 9,7 km/h (2 Bft) 97,87 %
26.09.2019 09:06 14,8 C 14,4 C 13,9 C 94 % 1008,6 hPa 0,0 l/m 0 min 0 min 71 W/m 16,1 km/h (3 Bft) 95,74 %
26.09.2019 09:08 14,9 C 14,4 C 13,9 C 94 % 1008,4 hPa 0,0 l/m 0 min 0 min 74 W/m 12,9 km/h (3 Bft) 97,83 %
26.09.2019 09:10 14,9 C 15,0 C 14,4 C 94 % 1008,4 hPa 0,0 l/m 0 min 0 min 77 W/m 9,7 km/h (2 Bft) 98,00 %
26.09.2019 09:12 14,9 C 15,0 C 14,4 C 94 % 1008,4 hPa 0,0 l/m 0 min 0 min 77 W/m 9,7 km/h (2 Bft) 97,96 %
26.09.2019 09:14 14,9 C 15,0 C 14,4 C 94 % 1008,4 hPa 0,0 l/m 0 min 0 min 72 W/m 6,4 km/h (2 Bft) 97,87 %
26.09.2019 09:16 14,9 C 15,0 C 14,4 C 94 % 1008,4 hPa 0,0 l/m 0 min 0 min 78 W/m 9,7 km/h (2 Bft) 93,48 %
26.09.2019 09:18 14,9 C 15,0 C 14,4 C 94 % 1008,4 hPa 0,0 l/m 0 min 0 min 84 W/m 9,7 km/h (2 Bft) 97,87 %
26.09.2019 09:20 14,9 C 15,0 C 14,4 C 94 % 1008,5 hPa 0,0 l/m 0 min 0 min 86 W/m 9,7 km/h (2 Bft) 100,00 %
26.09.2019 09:22 15,0 C 15,0 C 14,4 C 94 % 1008,4 hPa 0,0 l/m 0 min 0 min 85 W/m 16,1 km/h (3 Bft) 97,87 %
26.09.2019 09:24 15,0 C 15,0 C 14,4 C 94 % 1008,3 hPa 0,0 l/m 0 min 0 min 87 W/m 12,9 km/h (3 Bft) 95,74 %
26.09.2019 09:26 15,0 C 15,0 C 14,4 C 94 % 1008,4 hPa 0,0 l/m 0 min 0 min 89 W/m 16,1 km/h (3 Bft) 97,87 %
26.09.2019 09:28 15,0 C 15,0 C 14,4 C 94 % 1008,4 hPa 0,0 l/m 0 min 0 min 80 W/m 16,1 km/h (3 Bft) 100,00 %
26.09.2019 09:30 15,1 C 15,0 C 14,4 C 94 % 1008,5 hPa 0,0 l/m 0 min 0 min 67 W/m 16,1 km/h (3 Bft) 100,00 %
26.09.2019 09:32 15,1 C 15,0 C 14,4 C 94 % 1008,6 hPa 0,0 l/m 0 min 0 min 58 W/m 22,5 km/h (4 Bft) 100,00 %
26.09.2019 09:34 15,1 C 15,0 C 14,4 C 94 % 1008,7 hPa 0,0 l/m 0 min 0 min 58 W/m 9,7 km/h (2 Bft) 93,62 %
26.09.2019 09:36 15,1 C 15,0 C 14,4 C 94 % 1008,6 hPa 0,0 l/m 0 min 0 min 58 W/m 6,4 km/h (2 Bft) 100,00 %
26.09.2019 09:38 15,1 C 15,0 C 14,4 C 94 % 1008,6 hPa 0,0 l/m 0 min 0 min 62 W/m 12,9 km/h (3 Bft) 100,00 %
26.09.2019 09:40 15,1 C 15,0 C 14,4 C 94 % 1008,7 hPa 0,0 l/m 0 min 0 min 63 W/m 16,1 km/h (3 Bft) 100,00 %
26.09.2019 09:42 15,1 C 15,0 C 14,4 C 94 % 1008,8 hPa 0,0 l/m 0 min 0 min 63 W/m 9,7 km/h (2 Bft) 97,67 %
26.09.2019 09:44 15,1 C 15,0 C 14,4 C 94 % 1008,8 hPa 0,0 l/m 0 min 0 min 69 W/m 12,9 km/h (3 Bft) 100,00 %
26.09.2019 09:46 15,2 C 15,0 C 14,4 C 94 % 1008,8 hPa 0,0 l/m 0 min 0 min 81 W/m 12,9 km/h (3 Bft) 100,00 %
26.09.2019 09:48 15,2 C 15,6 C 15,0 C 95 % 1008,8 hPa 0,0 l/m 0 min 0 min 96 W/m 9,7 km/h (2 Bft) 100,00 %
26.09.2019 09:50 15,2 C 15,6 C 15,0 C 95 % 1008,8 hPa 0,0 l/m 0 min 0 min 105 W/m 6,4 km/h (2 Bft) 100,00 %
26.09.2019 09:52 15,2 C 15,6 C 15,0 C 95 % 1008,8 hPa 0,0 l/m 0 min 0 min 115 W/m 6,4 km/h (2 Bft) 97,83 %
26.09.2019 09:54 15,2 C 15,6 C 15,0 C 95 % 1008,8 hPa 0,0 l/m 0 min 0 min 97 W/m 12,9 km/h (3 Bft) 100,00 %
26.09.2019 09:56 15,3 C 15,6 C 15,0 C 95 % 1008,9 hPa 0,0 l/m 0 min 0 min 67 W/m 9,7 km/h (2 Bft) 97,87 %
26.09.2019 09:58 15,3 C 15,6 C 15,0 C 95 % 1009,0 hPa 0,0 l/m 0 min 0 min 67 W/m 9,7 km/h (2 Bft) 97,87 %
26.09.2019 10:00 15,3 C 15,6 C 15,0 C 95 % 1008,9 hPa 0,0 l/m 0 min 0 min 79 W/m 6,4 km/h (2 Bft) 97,62 %
26.09.2019 10:02 15,3 C 15,6 C 15,0 C 94 % 1008,8 hPa 0,0 l/m 0 min 0 min 85 W/m 9,7 km/h (2 Bft) 97,87 %
26.09.2019 10:04 15,3 C 15,6 C 15,0 C 94 % 1008,8 hPa 0,0 l/m 0 min 0 min 84 W/m 12,9 km/h (3 Bft) 97,87 %
26.09.2019 10:06 15,4 C 15,6 C 15,0 C 94 % 1008,9 hPa 0,0 l/m 0 min 0 min 98 W/m 16,1 km/h (3 Bft) 97,87 %
26.09.2019 10:08 15,4 C 15,6 C 15,0 C 94 % 1008,9 hPa 0,0 l/m 0 min 0 min 107 W/m 12,9 km/h (3 Bft) 97,96 %
26.09.2019 10:10 15,4 C 15,6 C 15,0 C 94 % 1008,9 hPa 0,0 l/m 0 min 0 min 113 W/m 16,1 km/h (3 Bft) 95,74 %
26.09.2019 10:12 15,4 C 15,6 C 15,0 C 94 % 1009,0 hPa 0,0 l/m 0 min 0 min 111 W/m 16,1 km/h (3 Bft) 98,00 %
26.09.2019 10:14 15,5 C 16,1 C 15,0 C 94 % 1009,0 hPa 0,0 l/m 0 min 0 min 104 W/m 9,7 km/h (2 Bft) 97,56 %
26.09.2019 10:16 15,5 C 15,6 C 15,0 C 94 % 1009,0 hPa 0,0 l/m 0 min 0 min 104 W/m 16,1 km/h (3 Bft) 98,00 %
26.09.2019 10:18 15,6 C 16,1 C 15,0 C 94 % 1009,0 hPa 0,0 l/m 0 min 0 min 108 W/m 16,1 km/h (3 Bft) 97,83 %
26.09.2019 10:20 15,6 C 16,1 C 15,0 C 94 % 1009,0 hPa 0,0 l/m 0 min 0 min 95 W/m 16,1 km/h (3 Bft) 95,74 %
26.09.2019 10:22 15,6 C 16,1 C 15,0 C 94 % 1009,0 hPa 0,0 l/m 0 min 0 min 90 W/m 9,7 km/h (2 Bft) 97,87 %
26.09.2019 10:24 15,7 C 16,1 C 15,0 C 94 % 1009,1 hPa 0,0 l/m 0 min 0 min 89 W/m 12,9 km/h (3 Bft) 97,87 %
26.09.2019 10:26 15,7 C 16,1 C 15,0 C 94 % 1009,0 hPa 0,0 l/m 0 min 0 min 87 W/m 12,9 km/h (3 Bft) 97,87 %
26.09.2019 10:28 15,7 C 16,1 C 15,6 C 94 % 1009,0 hPa 0,0 l/m 0 min 0 min 96 W/m 9,7 km/h (2 Bft) 97,87 %
26.09.2019 10:30 15,7 C 16,1 C 15,6 C 94 % 1009,0 hPa 0,0 l/m 0 min 0 min 113 W/m 16,1 km/h (3 Bft) 97,83 %
26.09.2019 10:32 15,8 C 16,1 C 15,6 C 94 % 1009,1 hPa 0,0 l/m 0 min 0 min 124 W/m 9,7 km/h (2 Bft) 94,00 %
26.09.2019 10:34 15,8 C 16,1 C 15,6 C 94 % 1009,0 hPa 0,0 l/m 0 min 0 min 113 W/m 9,7 km/h (2 Bft) 97,87 %
26.09.2019 10:36 15,8 C 16,7 C 15,6 C 94 % 1009,0 hPa 0,0 l/m 0 min 0 min 97 W/m 6,4 km/h (2 Bft) 97,87 %
26.09.2019 10:38 15,8 C 16,7 C 15,6 C 94 % 1009,1 hPa 0,0 l/m 0 min 0 min 86 W/m 9,7 km/h (2 Bft) 95,65 %
26.09.2019 10:40 15,9 C 16,1 C 15,6 C 94 % 1009,2 hPa 0,0 l/m 0 min 0 min 81 W/m 6,4 km/h (2 Bft) 97,87 %
26.09.2019 10:42 15,9 C 16,1 C 15,6 C 94 % 1009,2 hPa 0,0 l/m 0 min 0 min 80 W/m 9,7 km/h (2 Bft) 97,56 %
26.09.2019 10:44 15,9 C 16,1 C 15,6 C 94 % 1009,1 hPa 0,0 l/m 0 min 0 min 72 W/m 9,7 km/h (2 Bft) 97,87 %
26.09.2019 10:46 15,9 C 16,1 C 15,6 C 94 % 1009,2 hPa 0,0 l/m 0 min 0 min 69 W/m 12,9 km/h (3 Bft) 97,87 %
26.09.2019 10:48 16,0 C 16,1 C 15,6 C 93 % 1009,3 hPa 0,0 l/m 0 min 0 min 81 W/m 12,9 km/h (3 Bft) 95,74 %
26.09.2019 10:50 16,0 C 16,1 C 15,6 C 93 % 1009,2 hPa 0,0 l/m 0 min 0 min 94 W/m 9,7 km/h (2 Bft) 94,00 %
26.09.2019 10:52 16,1 C 16,1 C 15,6 C 93 % 1009,2 hPa 0,0 l/m 0 min 0 min 84 W/m 9,7 km/h (2 Bft) 95,74 %
26.09.2019 10:54 16,1 C 16,1 C 15,6 C 93 % 1009,3 hPa 0,0 l/m 0 min 0 min 66 W/m 12,9 km/h (3 Bft) 95,65 %
26.09.2019 10:56 16,1 C 16,1 C 15,6 C 93 % 1009,3 hPa 0,0 l/m 0 min 0 min 63 W/m 12,9 km/h (3 Bft) 96,00 %
26.09.2019 10:58 16,1 C 16,1 C 15,6 C 93 % 1009,2 hPa 0,0 l/m 0 min 0 min 67 W/m 12,9 km/h (3 Bft) 95,74 %
26.09.2019 11:00 16,1 C 16,1 C 15,6 C 93 % 1009,2 hPa 0,0 l/m 0 min 0 min 72 W/m 12,9 km/h (3 Bft) 97,56 %
26.09.2019 11:02 16,2 C 16,1 C 15,6 C 93 % 1009,3 hPa 0,0 l/m 0 min 0 min 73 W/m 12,9 km/h (3 Bft) 98,00 %
26.09.2019 11:04 16,2 C 16,1 C 15,6 C 93 % 1009,2 hPa 0,0 l/m 0 min 0 min 73 W/m 9,7 km/h (2 Bft) 97,96 %
26.09.2019 11:06 16,2 C 16,1 C 15,6 C 93 % 1009,3 hPa 0,0 l/m 0 min 0 min 82 W/m 12,9 km/h (3 Bft) 95,74 %
26.09.2019 11:08 16,2 C 16,7 C 15,6 C 93 % 1009,2 hPa 0,0 l/m 0 min 0 min 106 W/m 9,7 km/h (2 Bft) 97,56 %
26.09.2019 11:10 16,2 C 16,7 C 16,1 C 93 % 1009,3 hPa 0,0 l/m 0 min 0 min 133 W/m 16,1 km/h (3 Bft) 97,87 %
26.09.2019 11:12 16,2 C 16,7 C 16,1 C 93 % 1009,3 hPa 0,0 l/m 0 min 0 min 135 W/m 12,9 km/h (3 Bft) 96,00 %
26.09.2019 11:14 16,3 C 17,2 C 16,1 C 93 % 1009,3 hPa 0,0 l/m 0 min 0 min 149 W/m 9,7 km/h (2 Bft) 97,87 %
26.09.2019 11:16 16,3 C 17,2 C 16,1 C 92 % 1009,2 hPa 0,0 l/m 0 min 0 min 165 W/m 6,4 km/h (2 Bft) 97,83 %
26.09.2019 11:18 16,3 C 17,2 C 16,7 C 92 % 1009,2 hPa 0,0 l/m 0 min 0 min 181 W/m 16,1 km/h (3 Bft) 96,00 %
26.09.2019 11:20 16,4 C 17,2 C 16,7 C 92 % 1009,2 hPa 0,0 l/m 0 min 0 min 183 W/m 25,7 km/h (4 Bft) 97,87 %
26.09.2019 11:22 16,4 C 17,2 C 16,7 C 92 % 1009,2 hPa 0,0 l/m 0 min 0 min 189 W/m 12,9 km/h (3 Bft) 95,74 %
26.09.2019 11:24 16,5 C 17,8 C 16,7 C 92 % 1009,2 hPa 0,0 l/m 0 min 0 min 203 W/m 9,7 km/h (2 Bft) 100,00 %
26.09.2019 11:26 16,5 C 17,8 C 16,7 C 92 % 1009,2 hPa 0,0 l/m 0 min 0 min 215 W/m 16,1 km/h (3 Bft) 98,00 %
26.09.2019 11:28 16,6 C 17,8 C 16,7 C 92 % 1009,2 hPa 0,0 l/m 0 min 0 min 214 W/m 16,1 km/h (3 Bft) 100,00 %
26.09.2019 11:30 16,6 C 17,8 C 16,7 C 92 % 1009,3 hPa 0,0 l/m 0 min 0 min 196 W/m 12,9 km/h (3 Bft) 97,87 %
26.09.2019 11:32 16,7 C 17,2 C 16,7 C 92 % 1009,3 hPa 0,0 l/m 0 min 0 min 163 W/m 16,1 km/h (3 Bft) 100,00 %
26.09.2019 11:34 16,7 C 17,2 C 16,7 C 92 % 1009,3 hPa 0,0 l/m 0 min 0 min 133 W/m 19,3 km/h (3 Bft) 100,00 %
26.09.2019 11:36 16,8 C 17,2 C 16,7 C 92 % 1009,3 hPa 0,0 l/m 0 min 0 min 108 W/m 16,1 km/h (3 Bft) 97,83 %
26.09.2019 11:38 16,8 C 16,7 C 16,7 C 92 % 1009,3 hPa 0,0 l/m 0 min 2 min 85 W/m 22,5 km/h (4 Bft) 95,74 %
26.09.2019 11:40 16,8 C 16,7 C 16,1 C 92 % 1009,4 hPa 0,0 l/m 0 min 2 min 67 W/m 12,9 km/h (3 Bft) 95,12 %
26.09.2019 11:42 16,8 C 16,1 C 15,6 C 92 % 1009,4 hPa 0,0 l/m 0 min 2 min 53 W/m 12,9 km/h (3 Bft) 97,87 %
26.09.2019 11:44 16,9 C 16,1 C 15,6 C 91 % 1009,4 hPa 0,0 l/m 0 min 2 min 46 W/m 6,4 km/h (2 Bft) 97,87 %
26.09.2019 11:46 16,9 C 15,6 C 15,0 C 91 % 1009,4 hPa 0,0 l/m 0 min 2 min 46 W/m 9,7 km/h (2 Bft) 97,87 %
26.09.2019 11:48 16,9 C 15,0 C 15,0 C 91 % 1009,5 hPa 0,0 l/m 0 min 2 min 50 W/m 19,3 km/h (3 Bft) 97,87 %
26.09.2019 11:50 16,9 C 15,0 C 14,4 C 91 % 1009,6 hPa 0,2 l/m 0 min 2 min 55 W/m 19,3 km/h (3 Bft) 97,87 %
26.09.2019 11:52 16,9 C 15,0 C 14,4 C 91 % 1009,4 hPa 0,0 l/m 0 min 2 min 63 W/m 12,9 km/h (3 Bft) 97,83 %
26.09.2019 11:54 16,9 C 15,0 C 14,4 C 92 % 1009,5 hPa 0,0 l/m 0 min 2 min 72 W/m 12,9 km/h (3 Bft) 98,00 %
26.09.2019 11:56 17,0 C 15,0 C 14,4 C 92 % 1009,5 hPa 0,2 l/m 0 min 2 min 80 W/m 12,9 km/h (3 Bft) 98,00 %
26.09.2019 11:58 17,0 C 15,0 C 14,4 C 92 % 1009,6 hPa 0,2 l/m 0 min 2 min 88 W/m 6,4 km/h (2 Bft) 97,87 %
26.09.2019 12:00 17,0 C 15,0 C 14,4 C 92 % 1009,6 hPa 0,0 l/m 0 min 2 min 87 W/m 9,7 km/h (2 Bft) 97,83 %
26.09.2019 12:02 17,0 C 15,0 C 14,4 C 92 % 1009,5 hPa 0,0 l/m 0 min 2 min 94 W/m 12,9 km/h (3 Bft) 97,87 %
26.09.2019 12:04 16,9 C 15,0 C 14,4 C 92 % 1009,5 hPa 0,0 l/m 0 min 2 min 96 W/m 12,9 km/h (3 Bft) 97,87 %
26.09.2019 12:08 16,9 C 15,0 C 14,4 C 92 % 1009,7 hPa 0,0 l/m 0 min 4 min 110 W/m 12,9 km/h (3 Bft) 96,81 %
26.09.2019 12:10 16,9 C 15,0 C 15,0 C 92 % 1009,7 hPa 0,2 l/m 0 min 2 min 121 W/m 12,9 km/h (3 Bft) 97,56 %
26.09.2019 12:12 16,9 C 15,0 C 15,0 C 93 % 1009,7 hPa 0,0 l/m 0 min 2 min 111 W/m 12,9 km/h (3 Bft) 97,87 %
26.09.2019 12:14 16,9 C 15,0 C 15,0 C 93 % 1009,8 hPa 0,0 l/m 0 min 2 min 103 W/m 9,7 km/h (2 Bft) 97,87 %
26.09.2019 12:16 16,9 C 15,0 C 15,0 C 93 % 1009,7 hPa 0,0 l/m 0 min 2 min 117 W/m 16,1 km/h (3 Bft) 97,83 %
26.09.2019 12:18 16,9 C 15,0 C 15,0 C 93 % 1009,9 hPa 0,0 l/m 0 min 2 min 126 W/m 6,4 km/h (2 Bft) 96,00 %
26.09.2019 12:20 16,9 C 15,6 C 15,0 C 93 % 1009,8 hPa 0,0 l/m 0 min 2 min 132 W/m 9,7 km/h (2 Bft) 97,87 %
26.09.2019 12:22 16,9 C 15,6 C 15,0 C 93 % 1009,9 hPa 0,2 l/m 0 min 2 min 145 W/m 9,7 km/h (2 Bft) 97,87 %
26.09.2019 12:24 16,9 C 15,6 C 15,0 C 93 % 1009,9 hPa 0,0 l/m 0 min 2 min 135 W/m 9,7 km/h (2 Bft) 97,87 %
26.09.2019 12:26 16,9 C 15,6 C 15,0 C 93 % 1010,0 hPa 0,0 l/m 0 min 2 min 108 W/m 12,9 km/h (3 Bft) 97,83 %
26.09.2019 12:28 16,9 C 15,6 C 15,0 C 93 % 1010,0 hPa 0,0 l/m 0 min 0 min 105 W/m 12,9 km/h (3 Bft) 97,87 %
26.09.2019 12:30 16,9 C 15,6 C 15,0 C 94 % 1010,0 hPa 0,0 l/m 0 min 0 min 104 W/m 6,4 km/h (2 Bft) 98,00 %
26.09.2019 12:32 16,9 C 15,6 C 15,0 C 94 % 1010,1 hPa 0,0 l/m 0 min 0 min 95 W/m 16,1 km/h (3 Bft) 100,00 %
26.09.2019 12:34 16,9 C 15,6 C 15,0 C 94 % 1010,1 hPa 0,0 l/m 0 min 0 min 77 W/m 6,4 km/h (2 Bft) 97,83 %
26.09.2019 12:36 16,9 C 15,6 C 15,0 C 94 % 1010,1 hPa 0,0 l/m 0 min 0 min 69 W/m 9,7 km/h (2 Bft) 100,00 %
26.09.2019 12:38 16,9 C 15,6 C 15,0 C 94 % 1010,2 hPa 0,0 l/m 0 min 2 min 69 W/m 6,4 km/h (2 Bft) 97,96 %
26.09.2019 12:40 16,9 C 15,6 C 15,0 C 94 % 1010,2 hPa 0,0 l/m 0 min 2 min 71 W/m 9,7 km/h (2 Bft) 97,87 %
26.09.2019 12:42 16,9 C 15,6 C 15,0 C 94 % 1010,3 hPa 0,0 l/m 0 min 2 min 71 W/m 9,7 km/h (2 Bft) 100,00 %
26.09.2019 12:44 16,9 C 15,6 C 15,0 C 94 % 1010,4 hPa 0,0 l/m 0 min 2 min 68 W/m 9,7 km/h (2 Bft) 100,00 %
26.09.2019 12:46 16,9 C 15,6 C 15,0 C 94 % 1010,4 hPa 0,0 l/m 0 min 2 min 61 W/m 9,7 km/h (2 Bft) 97,83 %
26.09.2019 12:48 16,9 C 15,6 C 15,0 C 94 % 1010,4 hPa 0,0 l/m 0 min 2 min 60 W/m 6,4 km/h (2 Bft) 97,62 %
26.09.2019 12:50 16,9 C 15,6 C 15,0 C 94 % 1010,4 hPa 0,0 l/m 0 min 2 min 68 W/m 6,4 km/h (2 Bft) 97,83 %
26.09.2019 12:52 16,9 C 15,6 C 15,0 C 94 % 1010,4 hPa 0,0 l/m 0 min 2 min 74 W/m 6,4 km/h (2 Bft) 97,87 %
26.09.2019 12:54 16,9 C 15,6 C 15,0 C 95 % 1010,5 hPa 0,0 l/m 0 min 2 min 77 W/m 9,7 km/h (2 Bft) 100,00 %
26.09.2019 12:56 16,9 C 15,6 C 15,0 C 95 % 1010,5 hPa 0,0 l/m 0 min 2 min 66 W/m 9,7 km/h (2 Bft) 97,87 %
26.09.2019 12:58 16,9 C 15,6 C 15,0 C 95 % 1010,6 hPa 0,2 l/m 0 min 2 min 53 W/m 6,4 km/h (2 Bft) 95,74 %
26.09.2019 13:00 16,9 C 15,6 C 15,0 C 95 % 1010,6 hPa 0,0 l/m 0 min 2 min 55 W/m 9,7 km/h (2 Bft) 100,00 %
26.09.2019 13:02 16,9 C 15,6 C 15,0 C 95 % 1010,6 hPa 0,0 l/m 0 min 2 min 52 W/m 12,9 km/h (3 Bft) 100,00 %
26.09.2019 13:04 16,9 C 15,6 C 15,0 C 95 % 1010,6 hPa 0,0 l/m 0 min 0 min 46 W/m 6,4 km/h (2 Bft) 97,87 %
26.09.2019 13:06 16,9 C 15,6 C 15,0 C 95 % 1010,6 hPa 0,0 l/m 0 min 0 min 39 W/m 12,9 km/h (3 Bft) 93,62 %
26.09.2019 13:08 16,9 C 15,6 C 15,0 C 95 % 1010,7 hPa 0,0 l/m 0 min 2 min 34 W/m 12,9 km/h (3 Bft) 97,87 %
26.09.2019 13:10 16,9 C 15,0 C 15,0 C 95 % 1010,7 hPa 0,0 l/m 0 min 2 min 32 W/m 19,3 km/h (3 Bft) 97,87 %
26.09.2019 13:12 16,8 C 15,6 C 15,0 C 95 % 1010,7 hPa 0,0 l/m 0 min 2 min 59 W/m 16,1 km/h (3 Bft) 97,87 %
26.09.2019 13:14 16,8 C 15,6 C 15,0 C 95 % 1010,7 hPa 0,0 l/m 0 min 2 min 77 W/m 12,9 km/h (3 Bft) 97,83 %
26.09.2019 13:16 16,8 C 15,6 C 15,0 C 95 % 1010,8 hPa 0,2 l/m 0 min 2 min 73 W/m 12,9 km/h (3 Bft) 97,87 %
26.09.2019 13:18 16,8 C 15,6 C 15,0 C 95 % 1010,8 hPa 0,0 l/m 0 min 2 min 58 W/m 12,9 km/h (3 Bft) 95,74 %
26.09.2019 13:20 16,8 C 15,6 C 15,0 C 95 % 1010,8 hPa 0,2 l/m 0 min 2 min 50 W/m 3,2 km/h (1 Bft) 96,00 %
26.09.2019 13:22 16,8 C 15,6 C 15,0 C 95 % 1010,9 hPa 0,0 l/m 0 min 2 min 52 W/m 12,9 km/h (3 Bft) 93,62 %
26.09.2019 13:24 16,8 C 15,6 C 15,0 C 95 % 1010,9 hPa 0,2 l/m 0 min 2 min 61 W/m 3,2 km/h (1 Bft) 93,48 %
26.09.2019 13:26 16,8 C 15,6 C 15,0 C 95 % 1010,9 hPa 0,0 l/m 0 min 2 min 67 W/m 9,7 km/h (2 Bft) 92,00 %
26.09.2019 13:28 16,8 C 15,6 C 15,0 C 95 % 1010,9 hPa 0,0 l/m 0 min 2 min 61 W/m 3,2 km/h (1 Bft) 95,74 %
26.09.2019 13:30 16,8 C 15,6 C 15,0 C 95 % 1010,9 hPa 0,2 l/m 0 min 2 min 60 W/m 9,7 km/h (2 Bft) 95,74 %
26.09.2019 13:32 16,8 C 15,6 C 15,0 C 95 % 1010,9 hPa 0,0 l/m 0 min 2 min 64 W/m 12,9 km/h (3 Bft) 95,65 %
26.09.2019 13:34 16,8 C 15,6 C 15,0 C 96 % 1011,0 hPa 0,0 l/m 0 min 2 min 62 W/m 3,2 km/h (1 Bft) 95,74 %
26.09.2019 13:36 16,8 C 15,6 C 15,0 C 96 % 1011,0 hPa 0,2 l/m 0 min 2 min 62 W/m 16,1 km/h (3 Bft) 95,74 %
26.09.2019 13:38 16,8 C 15,6 C 15,0 C 96 % 1010,9 hPa 0,0 l/m 0 min 0 min 81 W/m 9,7 km/h (2 Bft) 95,74 %
26.09.2019 13:40 16,8 C 15,6 C 15,0 C 96 % 1011,0 hPa 0,0 l/m 0 min 0 min 103 W/m 16,1 km/h (3 Bft) 95,74 %
26.09.2019 13:42 16,8 C 15,6 C 15,0 C 96 % 1011,0 hPa 0,0 l/m 0 min 2 min 91 W/m 9,7 km/h (2 Bft) 95,12 %
26.09.2019 13:44 16,8 C 15,6 C 15,0 C 96 % 1011,0 hPa 0,0 l/m 0 min 0 min 82 W/m 9,7 km/h (2 Bft) 93,62 %
26.09.2019 13:46 16,8 C 15,6 C 15,0 C 96 % 1011,0 hPa 0,0 l/m 0 min 0 min 74 W/m 9,7 km/h (2 Bft) 96,00 %
26.09.2019 13:48 16,8 C 15,6 C 15,0 C 96 % 1011,0 hPa 0,0 l/m 0 min 0 min 57 W/m 9,7 km/h (2 Bft) 95,65 %
26.09.2019 13:50 16,8 C 15,6 C 15,0 C 96 % 1011,0 hPa 0,0 l/m 0 min 0 min 55 W/m 6,4 km/h (2 Bft) 96,00 %
26.09.2019 13:52 16,8 C 15,6 C 15,0 C 96 % 1011,0 hPa 0,0 l/m 0 min 2 min 49 W/m 12,9 km/h (3 Bft) 95,74 %
26.09.2019 13:54 16,8 C 15,6 C 15,0 C 96 % 1011,1 hPa 0,0 l/m 0 min 2 min 39 W/m 6,4 km/h (2 Bft) 95,74 %
26.09.2019 13:56 16,8 C 15,6 C 15,0 C 96 % 1011,1 hPa 0,0 l/m 0 min 0 min 34 W/m 16,1 km/h (3 Bft) 93,48 %
26.09.2019 13:58 16,8 C 15,6 C 15,0 C 96 % 1011,0 hPa 0,0 l/m 0 min 2 min 35 W/m 12,9 km/h (3 Bft) 95,74 %
26.09.2019 14:00 16,8 C 15,6 C 15,0 C 96 % 1011,0 hPa 0,2 l/m 0 min 2 min 40 W/m 6,4 km/h (2 Bft) 92,68 %
26.09.2019 14:02 16,7 C 15,0 C 15,0 C 96 % 1011,0 hPa 0,2 l/m 0 min 2 min 40 W/m 19,3 km/h (3 Bft) 97,87 %
26.09.2019 14:04 16,7 C 15,6 C 15,0 C 96 % 1011,1 hPa 0,0 l/m 0 min 2 min 53 W/m 12,9 km/h (3 Bft) 100,00 %
26.09.2019 14:06 16,7 C 15,6 C 15,0 C 96 % 1011,1 hPa 0,0 l/m 0 min 2 min 92 W/m 9,7 km/h (2 Bft) 100,00 %
26.09.2019 14:08 16,7 C 15,6 C 15,0 C 96 % 1011,0 hPa 0,0 l/m 0 min 2 min 106 W/m 19,3 km/h (3 Bft) 97,87 %
26.09.2019 14:10 16,7 C 15,6 C 15,0 C 96 % 1011,1 hPa 0,0 l/m 0 min 2 min 106 W/m 16,1 km/h (3 Bft) 100,00 %
26.09.2019 14:12 16,7 C 15,6 C 15,0 C 96 % 1011,1 hPa 0,0 l/m 0 min 0 min 88 W/m 12,9 km/h (3 Bft) 97,83 %
26.09.2019 14:14 16,7 C 15,6 C 15,0 C 96 % 1011,2 hPa 0,0 l/m 0 min 0 min 71 W/m 12,9 km/h (3 Bft) 100,00 %
26.09.2019 14:16 16,7 C 15,6 C 15,0 C 96 % 1011,2 hPa 0,0 l/m 0 min 0 min 59 W/m 16,1 km/h (3 Bft) 100,00 %
26.09.2019 14:18 16,7 C 15,6 C 15,0 C 96 % 1011,2 hPa 0,0 l/m 0 min 0 min 50 W/m 12,9 km/h (3 Bft) 100,00 %
26.09.2019 14:20 16,7 C 15,6 C 15,0 C 97 % 1011,2 hPa 0,2 l/m 0 min 0 min 44 W/m 16,1 km/h (3 Bft) 100,00 %
26.09.2019 14:22 16,7 C 15,6 C 15,0 C 97 % 1011,2 hPa 0,0 l/m 0 min 0 min 51 W/m 16,1 km/h (3 Bft) 97,96 %
26.09.2019 14:24 16,6 C 15,6 C 15,0 C 97 % 1011,2 hPa 0,0 l/m 0 min 0 min 55 W/m 9,7 km/h (2 Bft) 100,00 %
26.09.2019 14:26 16,6 C 15,6 C 15,0 C 97 % 1011,3 hPa 0,0 l/m 0 min 2 min 64 W/m 9,7 km/h (2 Bft) 100,00 %
26.09.2019 14:28 16,6 C 15,6 C 15,0 C 97 % 1011,2 hPa 0,0 l/m 0 min 2 min 71 W/m 9,7 km/h (2 Bft) 100,00 %
26.09.2019 14:30 16,6 C 15,6 C 15,0 C 97 % 1011,3 hPa 0,0 l/m 0 min 2 min 71 W/m 6,4 km/h (2 Bft) 100,00 %
26.09.2019 14:32 16,6 C 15,6 C 15,0 C 97 % 1011,3 hPa 0,0 l/m 0 min 2 min 63 W/m 9,7 km/h (2 Bft) 100,00 %
26.09.2019 14:34 16,6 C 15,6 C 15,0 C 97 % 1011,3 hPa 0,0 l/m 0 min 0 min 65 W/m 12,9 km/h (3 Bft) 100,00 %
26.09.2019 14:36 16,6 C 15,6 C 15,0 C 97 % 1011,3 hPa 0,0 l/m 0 min 2 min 69 W/m 12,9 km/h (3 Bft) 100,00 %
26.09.2019 14:38 16,6 C 15,6 C 15,0 C 97 % 1011,3 hPa 0,0 l/m 0 min 0 min 63 W/m 6,4 km/h (2 Bft) 100,00 %
26.09.2019 14:40 16,6 C 15,6 C 15,0 C 97 % 1011,3 hPa 0,2 l/m 0 min 0 min 60 W/m 9,7 km/h (2 Bft) 97,56 %
26.09.2019 14:42 16,6 C 15,6 C 15,0 C 97 % 1011,4 hPa 0,0 l/m 0 min 0 min 71 W/m 19,3 km/h (3 Bft) 95,74 %
26.09.2019 14:44 16,6 C 15,6 C 15,0 C 97 % 1011,4 hPa 0,0 l/m 0 min 0 min 83 W/m 16,1 km/h (3 Bft) 100,00 %
26.09.2019 14:46 16,6 C 15,6 C 15,0 C 97 % 1011,5 hPa 0,0 l/m 0 min 0 min 74 W/m 16,1 km/h (3 Bft) 100,00 %
26.09.2019 14:48 16,6 C 15,6 C 15,0 C 97 % 1011,4 hPa 0,0 l/m 0 min 0 min 65 W/m 16,1 km/h (3 Bft) 100,00 %
26.09.2019 14:50 16,6 C 15,6 C 15,0 C 97 % 1011,5 hPa 0,0 l/m 0 min 0 min 59 W/m 16,1 km/h (3 Bft) 100,00 %
26.09.2019 14:52 16,6 C 15,6 C 15,0 C 97 % 1011,5 hPa 0,0 l/m 0 min 0 min 57 W/m 12,9 km/h (3 Bft) 98,00 %
26.09.2019 14:54 16,6 C 15,6 C 15,0 C 97 % 1011,6 hPa 0,0 l/m 0 min 0 min 66 W/m 9,7 km/h (2 Bft) 97,96 %
26.09.2019 14:56 16,6 C 15,6 C 15,0 C 97 % 1011,6 hPa 0,0 l/m 0 min 0 min 54 W/m 16,1 km/h (3 Bft) 95,74 %
26.09.2019 14:58 16,6 C 15,6 C 15,0 C 97 % 1011,6 hPa 0,0 l/m 0 min 0 min 67 W/m 19,3 km/h (3 Bft) 97,87 %
26.09.2019 15:00 16,6 C 15,6 C 15,0 C 97 % 1011,5 hPa 0,0 l/m 0 min 0 min 110 W/m 9,7 km/h (2 Bft) 97,62 %
26.09.2019 15:02 16,6 C 15,6 C 15,0 C 97 % 1011,5 hPa 0,0 l/m 0 min 0 min 106 W/m 6,4 km/h (2 Bft) 97,87 %
26.09.2019 15:04 16,6 C 15,6 C 15,0 C 97 % 1011,7 hPa 0,0 l/m 0 min 0 min 77 W/m 9,7 km/h (2 Bft) 96,00 %
26.09.2019 15:06 16,6 C 15,6 C 15,0 C 97 % 1011,8 hPa 0,0 l/m 0 min 0 min 74 W/m 19,3 km/h (3 Bft) 95,83 %
26.09.2019 15:08 16,6 C 15,6 C 15,0 C 97 % 1011,8 hPa 0,0 l/m 0 min 0 min 71 W/m 12,9 km/h (3 Bft) 97,87 %
26.09.2019 15:10 16,6 C 15,6 C 15,0 C 97 % 1011,8 hPa 0,0 l/m 0 min 0 min 70 W/m 6,4 km/h (2 Bft) 97,87 %
26.09.2019 15:12 16,6 C 15,6 C 15,0 C 97 % 1011,8 hPa 0,0 l/m 0 min 0 min 73 W/m 6,4 km/h (2 Bft) 97,87 %
26.09.2019 15:14 16,7 C 15,6 C 15,0 C 97 % 1011,8 hPa 0,0 l/m 0 min 0 min 81 W/m 19,3 km/h (3 Bft) 94,29 %
26.09.2019 15:16 16,7 C 16,1 C 15,6 C 97 % 1011,8 hPa 0,0 l/m 0 min 0 min 83 W/m 6,4 km/h (2 Bft) 94,92 %
26.09.2019 15:18 16,7 C 16,1 C 15,6 C 98 % 1011,8 hPa 0,0 l/m 0 min 0 min 94 W/m 16,1 km/h (3 Bft) 95,12 %
26.09.2019 15:20 16,7 C 16,1 C 15,6 C 98 % 1011,9 hPa 0,0 l/m 0 min 0 min 97 W/m 16,1 km/h (3 Bft) 97,87 %
26.09.2019 15:22 16,7 C 16,1 C 15,6 C 98 % 1011,9 hPa 0,0 l/m 0 min 0 min 100 W/m 12,9 km/h (3 Bft) 95,65 %
26.09.2019 15:24 16,7 C 16,1 C 15,6 C 98 % 1011,9 hPa 0,0 l/m 0 min 0 min 116 W/m 6,4 km/h (2 Bft) 97,87 %
26.09.2019 15:26 16,7 C 16,7 C 15,6 C 98 % 1011,9 hPa 0,0 l/m 0 min 0 min 148 W/m 6,4 km/h (2 Bft) 95,74 %
26.09.2019 15:28 16,8 C 16,7 C 16,1 C 98 % 1012,0 hPa 0,0 l/m 0 min 0 min 180 W/m 12,9 km/h (3 Bft) 97,87 %
26.09.2019 15:30 16,8 C 16,7 C 16,1 C 98 % 1012,0 hPa 0,0 l/m 0 min 0 min 166 W/m 16,1 km/h (3 Bft) 95,74 %
26.09.2019 15:32 16,8 C 16,7 C 16,1 C 98 % 1012,1 hPa 0,0 l/m 0 min 0 min 105 W/m 9,7 km/h (2 Bft) 97,96 %
26.09.2019 15:34 16,9 C 16,7 C 15,6 C 98 % 1012,1 hPa 0,0 l/m 0 min 0 min 74 W/m 12,9 km/h (3 Bft) 97,87 %
26.09.2019 15:36 16,9 C 16,7 C 15,6 C 98 % 1012,0 hPa 0,0 l/m 0 min 0 min 84 W/m 9,7 km/h (2 Bft) 97,87 %
26.09.2019 15:38 16,9 C 16,7 C 15,6 C 98 % 1012,1 hPa 0,0 l/m 0 min 0 min 88 W/m 12,9 km/h (3 Bft) 96,00 %
26.09.2019 15:40 16,9 C 16,7 C 15,6 C 98 % 1012,2 hPa 0,0 l/m 0 min 0 min 86 W/m 9,7 km/h (2 Bft) 97,83 %
26.09.2019 15:42 16,9 C 16,7 C 15,6 C 98 % 1012,2 hPa 0,0 l/m 0 min 0 min 91 W/m 9,7 km/h (2 Bft) 97,62 %
26.09.2019 15:44 16,9 C 16,7 C 16,1 C 98 % 1012,2 hPa 0,0 l/m 0 min 0 min 99 W/m 6,4 km/h (2 Bft) 95,92 %
26.09.2019 15:46 17,0 C 16,7 C 16,1 C 98 % 1012,2 hPa 0,0 l/m 0 min 0 min 111 W/m 6,4 km/h (2 Bft) 100,00 %
26.09.2019 15:48 17,0 C 16,7 C 16,1 C 98 % 1012,3 hPa 0,0 l/m 0 min 0 min 139 W/m 12,9 km/h (3 Bft) 97,87 %
26.09.2019 15:50 17,1 C 16,7 C 16,1 C 98 % 1012,4 hPa 0,0 l/m 0 min 0 min 155 W/m 9,7 km/h (2 Bft) 100,00 %
26.09.2019 15:52 17,1 C 16,7 C 16,1 C 98 % 1012,4 hPa 0,0 l/m 0 min 0 min 158 W/m 22,5 km/h (4 Bft) 95,65 %
26.09.2019 15:54 17,1 C 16,7 C 16,1 C 98 % 1012,5 hPa 0,0 l/m 0 min 0 min 112 W/m 6,4 km/h (2 Bft) 97,87 %
26.09.2019 15:56 17,1 C 16,7 C 16,1 C 98 % 1012,6 hPa 0,0 l/m 0 min 0 min 90 W/m 9,7 km/h (2 Bft) 95,74 %
26.09.2019 15:58 17,1 C 16,7 C 16,1 C 98 % 1012,7 hPa 0,0 l/m 0 min 0 min 76 W/m 9,7 km/h (2 Bft) 97,56 %
26.09.2019 16:00 17,2 C 16,7 C 16,1 C 98 % 1012,6 hPa 0,0 l/m 0 min 0 min 86 W/m 9,7 km/h (2 Bft) 98,00 %
26.09.2019 16:18 17,3 C 16,7 C 16,1 C 99 % 1009,1 hPa 0,0 l/m 0 min 0 min 39 W/m 0,0 km/h (0 Bft) 98,31 %
26.09.2019 16:20 17,3 C 16,7 C 16,1 C 99 % 1009,0 hPa 0,0 l/m 0 min 0 min 41 W/m 12,9 km/h (3 Bft) 95,00 %
26.09.2019 16:22 17,3 C 16,7 C 16,1 C 99 % 1009,1 hPa 0,0 l/m 0 min 0 min 54 W/m 12,9 km/h (3 Bft) 95,35 %
26.09.2019 16:26 17,3 C 16,7 C 16,1 C 99 % 1009,1 hPa 0,0 l/m 0 min 0 min 50 W/m 3,2 km/h (1 Bft) 91,43 %
26.09.2019 16:28 17,3 C 16,7 C 16,1 C 99 % 1009,1 hPa 0,0 l/m 0 min 0 min 57 W/m 6,4 km/h (2 Bft) 95,74 %
26.09.2019 16:30 17,3 C 16,7 C 16,1 C 99 % 1009,1 hPa 0,0 l/m 0 min 0 min 55 W/m 12,9 km/h (3 Bft) 95,74 %
26.09.2019 16:32 17,3 C 16,7 C 16,1 C 99 % 1009,0 hPa 0,0 l/m 0 min 0 min 52 W/m 6,4 km/h (2 Bft) 95,65 %
26.09.2019 16:34 17,3 C 16,7 C 16,1 C 99 % 1009,1 hPa 0,0 l/m 0 min 0 min 52 W/m 12,9 km/h (3 Bft) 95,74 %
26.09.2019 16:36 17,4 C 16,7 C 16,1 C 99 % 1009,1 hPa 0,0 l/m 0 min 0 min 67 W/m 16,1 km/h (3 Bft) 95,74 %
26.09.2019 16:38 17,4 C 16,7 C 16,1 C 99 % 1009,1 hPa 0,0 l/m 0 min 0 min 64 W/m 12,9 km/h (3 Bft) 97,87 %
26.09.2019 16:40 17,4 C 16,7 C 16,1 C 99 % 1009,1 hPa 0,0 l/m 0 min 0 min 74 W/m 12,9 km/h (3 Bft) 97,87 %
26.09.2019 16:42 17,4 C 16,7 C 16,1 C 99 % 1009,1 hPa 0,0 l/m 0 min 0 min 74 W/m 12,9 km/h (3 Bft) 95,74 %
26.09.2019 16:44 17,4 C 16,7 C 16,1 C 99 % 1009,1 hPa 0,0 l/m 0 min 0 min 59 W/m 12,9 km/h (3 Bft) 95,65 %
26.09.2019 16:46 17,4 C 17,2 C 16,1 C 99 % 1009,2 hPa 0,0 l/m 0 min 0 min 55 W/m 6,4 km/h (2 Bft) 97,87 %
26.09.2019 16:48 17,4 C 17,2 C 16,1 C 99 % 1009,2 hPa 0,0 l/m 0 min 0 min 56 W/m 6,4 km/h (2 Bft) 95,74 %
26.09.2019 16:50 17,4 C 17,2 C 16,1 C 99 % 1009,1 hPa 0,0 l/m 0 min 0 min 61 W/m 6,4 km/h (2 Bft) 97,87 %
26.09.2019 16:52 17,5 C 17,2 C 16,1 C 99 % 1009,1 hPa 0,0 l/m 0 min 0 min 66 W/m 16,1 km/h (3 Bft) 97,87 %
26.09.2019 16:54 17,5 C 17,2 C 16,1 C 99 % 1009,1 hPa 0,0 l/m 0 min 0 min 71 W/m 19,3 km/h (3 Bft) 97,87 %
26.09.2019 16:56 17,5 C 17,2 C 16,1 C 99 % 1009,0 hPa 0,0 l/m 0 min 0 min 93 W/m 12,9 km/h (3 Bft) 97,83 %
26.09.2019 16:58 17,6 C 17,2 C 16,1 C 99 % 1009,0 hPa 0,0 l/m 0 min 0 min 92 W/m 12,9 km/h (3 Bft) 97,87 %
26.09.2019 17:00 17,6 C 17,2 C 16,1 C 99 % 1009,0 hPa 0,0 l/m 0 min 0 min 93 W/m 16,1 km/h (3 Bft) 97,87 %
26.09.2019 17:02 17,6 C 17,2 C 16,1 C 99 % 1009,0 hPa 0,0 l/m 0 min 0 min 99 W/m 16,1 km/h (3 Bft) 95,74 %
26.09.2019 17:04 17,6 C 17,2 C 16,1 C 99 % 1008,9 hPa 0,0 l/m 0 min 0 min 93 W/m 6,4 km/h (2 Bft) 97,87 %
26.09.2019 17:06 17,6 C 17,2 C 16,1 C 99 % 1009,0 hPa 0,0 l/m 0 min 0 min 79 W/m 6,4 km/h (2 Bft) 97,87 %
26.09.2019 17:08 17,7 C 17,2 C 16,1 C 99 % 1009,0 hPa 0,0 l/m 0 min 0 min 72 W/m 12,9 km/h (3 Bft) 97,83 %
26.09.2019 17:10 17,7 C 17,2 C 16,1 C 99 % 1009,0 hPa 0,0 l/m 0 min 0 min 77 W/m 6,4 km/h (2 Bft) 95,74 %
26.09.2019 17:12 17,7 C 17,2 C 16,1 C 99 % 1009,0 hPa 0,0 l/m 0 min 0 min 81 W/m 12,9 km/h (3 Bft) 95,74 %
26.09.2019 17:14 17,7 C 17,2 C 16,1 C 99 % 1008,9 hPa 0,0 l/m 0 min 0 min 89 W/m 6,4 km/h (2 Bft) 100,00 %
26.09.2019 17:16 17,7 C 17,8 C 16,1 C 99 % 1008,9 hPa 0,0 l/m 0 min 0 min 100 W/m 6,4 km/h (2 Bft) 100,00 %
26.09.2019 17:18 17,7 C 17,8 C 16,1 C 99 % 1009,0 hPa 0,0 l/m 0 min 0 min 119 W/m 12,9 km/h (3 Bft) 100,00 %
26.09.2019 17:20 17,8 C 17,8 C 16,1 C 99 % 1008,9 hPa 0,0 l/m 0 min 0 min 120 W/m 16,1 km/h (3 Bft) 100,00 %
26.09.2019 17:22 17,8 C 17,8 C 16,1 C 99 % 1008,9 hPa 0,0 l/m 0 min 0 min 115 W/m 12,9 km/h (3 Bft) 100,00 %
26.09.2019 17:24 17,8 C 17,8 C 16,1 C 99 % 1008,9 hPa 0,0 l/m 0 min 0 min 103 W/m 6,4 km/h (2 Bft) 100,00 %
26.09.2019 17:26 17,8 C 17,8 C 16,1 C 99 % 1008,9 hPa 0,0 l/m 0 min 0 min 83 W/m 16,1 km/h (3 Bft) 100,00 %
26.09.2019 17:28 17,8 C 17,2 C 16,1 C 99 % 1008,8 hPa 0,0 l/m 0 min 0 min 67 W/m 19,3 km/h (3 Bft) 100,00 %
26.09.2019 17:30 17,8 C 17,2 C 16,1 C 99 % 1008,8 hPa 0,0 l/m 0 min 0 min 60 W/m 16,1 km/h (3 Bft) 100,00 %
26.09.2019 17:32 17,8 C 17,2 C 16,1 C 99 % 1008,8 hPa 0,0 l/m 0 min 0 min 60 W/m 6,4 km/h (2 Bft) 100,00 %
26.09.2019 17:34 17,8 C 17,2 C 16,1 C 99 % 1008,8 hPa 0,0 l/m 0 min 0 min 53 W/m 19,3 km/h (3 Bft) 100,00 %
26.09.2019 17:36 17,8 C 17,2 C 16,1 C 99 % 1008,8 hPa 0,0 l/m 0 min 0 min 56 W/m 16,1 km/h (3 Bft) 100,00 %
26.09.2019 17:38 17,9 C 17,2 C 16,1 C 99 % 1008,7 hPa 0,0 l/m 0 min 0 min 62 W/m 12,9 km/h (3 Bft) 97,87 %
26.09.2019 17:40 17,9 C 17,2 C 16,1 C 99 % 1008,8 hPa 0,0 l/m 0 min 0 min 62 W/m 6,4 km/h (2 Bft) 100,00 %
26.09.2019 17:42 17,9 C 17,2 C 16,1 C 99 % 1008,7 hPa 0,0 l/m 0 min 0 min 58 W/m 0,0 km/h (0 Bft) 97,87 %
26.09.2019 17:44 17,9 C 17,2 C 16,1 C 99 % 1008,7 hPa 0,0 l/m 0 min 0 min 55 W/m 12,9 km/h (3 Bft) 100,00 %
26.09.2019 17:46 17,9 C 17,2 C 16,1 C 99 % 1008,8 hPa 0,0 l/m 0 min 0 min 53 W/m 16,1 km/h (3 Bft) 100,00 %
26.09.2019 17:48 17,9 C 17,2 C 16,1 C 98 % 1008,8 hPa 0,0 l/m 0 min 0 min 51 W/m 19,3 km/h (3 Bft) 100,00 %
26.09.2019 17:50 17,9 C 17,2 C 16,1 C 98 % 1008,7 hPa 0,0 l/m 0 min 0 min 48 W/m 12,9 km/h (3 Bft) 100,00 %
26.09.2019 17:52 17,9 C 17,2 C 16,1 C 98 % 1008,8 hPa 0,0 l/m 0 min 0 min 42 W/m 12,9 km/h (3 Bft) 100,00 %
26.09.2019 17:54 17,9 C 17,2 C 16,1 C 98 % 1008,7 hPa 0,0 l/m 0 min 0 min 42 W/m 16,1 km/h (3 Bft) 100,00 %
26.09.2019 17:56 17,9 C 17,2 C 16,1 C 98 % 1008,7 hPa 0,0 l/m 0 min 0 min 43 W/m 19,3 km/h (3 Bft) 97,87 %
26.09.2019 17:58 18,0 C 17,8 C 16,1 C 98 % 1008,7 hPa 0,0 l/m 0 min 0 min 34 W/m 12,9 km/h (3 Bft) 97,87 %
26.09.2019 18:00 18,0 C 17,2 C 16,1 C 98 % 1008,7 hPa 0,0 l/m 0 min 0 min 27 W/m 16,1 km/h (3 Bft) 97,87 %
26.09.2019 18:02 18,0 C 17,2 C 16,1 C 98 % 1008,7 hPa 0,0 l/m 0 min 0 min 21 W/m 6,4 km/h (2 Bft) 97,87 %
26.09.2019 18:04 18,1 C 17,2 C 16,1 C 98 % 1008,7 hPa 0,0 l/m 0 min 0 min 20 W/m 12,9 km/h (3 Bft) 95,74 %
26.09.2019 18:08 18,1 C 17,8 C 16,1 C 98 % 1008,7 hPa 0,0 l/m 0 min 0 min 17 W/m 12,9 km/h (3 Bft) 97,85 %
26.09.2019 18:10 18,1 C 17,8 C 16,1 C 98 % 1008,6 hPa 0,0 l/m 0 min 0 min 23 W/m 12,9 km/h (3 Bft) 95,74 %
26.09.2019 18:12 18,1 C 17,8 C 16,1 C 98 % 1008,6 hPa 0,0 l/m 0 min 0 min 29 W/m 6,4 km/h (2 Bft) 97,87 %
26.09.2019 18:14 18,1 C 17,8 C 16,1 C 98 % 1008,7 hPa 0,0 l/m 0 min 0 min 32 W/m 12,9 km/h (3 Bft) 95,74 %
26.09.2019 18:16 18,1 C 17,8 C 16,1 C 98 % 1008,6 hPa 0,0 l/m 0 min 0 min 33 W/m 16,1 km/h (3 Bft) 97,87 %
26.09.2019 18:18 18,1 C 17,8 C 16,1 C 97 % 1008,6 hPa 0,0 l/m 0 min 0 min 31 W/m 12,9 km/h (3 Bft) 95,65 %
26.09.2019 18:20 18,1 C 17,8 C 16,1 C 97 % 1008,6 hPa 0,0 l/m 0 min 0 min 27 W/m 12,9 km/h (3 Bft) 95,74 %
26.09.2019 18:22 18,1 C 17,8 C 16,1 C 97 % 1008,6 hPa 0,0 l/m 0 min 0 min 21 W/m 16,1 km/h (3 Bft) 93,62 %
26.09.2019 18:24 18,2 C 17,8 C 16,1 C 97 % 1008,6 hPa 0,0 l/m 0 min 0 min 17 W/m 16,1 km/h (3 Bft) 95,74 %
26.09.2019 18:26 18,2 C 17,8 C 16,1 C 97 % 1008,6 hPa 0,0 l/m 0 min 0 min 16 W/m 16,1 km/h (3 Bft) 95,74 %
26.09.2019 18:28 18,2 C 17,8 C 16,1 C 97 % 1008,6 hPa 0,0 l/m 0 min 0 min 14 W/m 12,9 km/h (3 Bft) 95,74 %
26.09.2019 18:30 18,2 C 17,8 C 16,1 C 97 % 1008,6 hPa 0,0 l/m 0 min 0 min 13 W/m 12,9 km/h (3 Bft) 95,65 %
26.09.2019 18:32 18,2 C 17,8 C 16,1 C 97 % 1008,6 hPa 0,0 l/m 0 min 0 min 11 W/m 6,4 km/h (2 Bft) 95,74 %
26.09.2019 18:34 18,2 C 17,8 C 16,1 C 97 % 1008,6 hPa 0,0 l/m 0 min 0 min 10 W/m 6,4 km/h (2 Bft) 95,74 %
26.09.2019 18:36 18,2 C 17,8 C 16,1 C 97 % 1008,6 hPa 0,0 l/m 0 min 0 min 10 W/m 3,2 km/h (1 Bft) 95,74 %
26.09.2019 18:38 18,2 C 17,8 C 16,1 C 96 % 1008,5 hPa 0,0 l/m 0 min 0 min 11 W/m 0,0 km/h (0 Bft) 95,74 %
26.09.2019 18:40 18,2 C 17,8 C 16,1 C 96 % 1008,5 hPa 0,0 l/m 0 min 0 min 13 W/m 0,0 km/h (0 Bft) 95,65 %
26.09.2019 18:42 18,2 C 17,8 C 16,1 C 96 % 1008,5 hPa 0,0 l/m 0 min 0 min 13 W/m 0,0 km/h (0 Bft) 95,74 %
26.09.2019 18:44 18,2 C 17,8 C 16,1 C 96 % 1008,5 hPa 0,0 l/m 0 min 0 min 11 W/m 12,9 km/h (3 Bft) 95,74 %
26.09.2019 18:46 18,2 C 17,8 C 16,1 C 96 % 1008,5 hPa 0,0 l/m 0 min 0 min 9 W/m 6,4 km/h (2 Bft) 95,74 %
26.09.2019 18:48 18,2 C 17,8 C 16,1 C 96 % 1008,5 hPa 0,0 l/m 0 min 0 min 7 W/m 0,0 km/h (0 Bft) 95,74 %
26.09.2019 18:50 18,2 C 17,2 C 16,1 C 96 % 1008,5 hPa 0,0 l/m 0 min 0 min 5 W/m 0,0 km/h (0 Bft) 97,87 %
26.09.2019 18:52 18,2 C 17,2 C 16,1 C 96 % 1008,5 hPa 0,0 l/m 0 min 0 min 5 W/m 0,0 km/h (0 Bft) 97,83 %
26.09.2019 18:54 18,2 C 17,2 C 16,1 C 96 % 1008,5 hPa 0,0 l/m 0 min 0 min 1 W/m 0,0 km/h (0 Bft) 95,74 %
26.09.2019 18:56 18,2 C 17,2 C 16,1 C 96 % 1008,5 hPa 0,0 l/m 0 min 0 min 0 W/m 12,9 km/h (3 Bft) 95,74 %
26.09.2019 18:58 18,2 C 17,2 C 16,1 C 96 % 1008,5 hPa 0,0 l/m 0 min 0 min 0 W/m 6,4 km/h (2 Bft) 95,74 %
26.09.2019 19:00 18,2 C 17,2 C 16,1 C 96 % 1008,5 hPa 0,0 l/m 0 min 0 min 0 W/m 12,9 km/h (3 Bft) 97,87 %
26.09.2019 19:02 18,2 C 17,2 C 16,1 C 96 % 1008,5 hPa 0,0 l/m 0 min 0 min 0 W/m 12,9 km/h (3 Bft) 97,87 %
26.09.2019 19:04 18,2 C 17,8 C 16,1 C 96 % 1008,4 hPa 0,0 l/m 0 min 0 min 0 W/m 6,4 km/h (2 Bft) 95,65 %
26.09.2019 19:06 18,2 C 17,8 C 16,1 C 96 % 1008,4 hPa 0,0 l/m 0 min 0 min 0 W/m 12,9 km/h (3 Bft) 100,00 %
26.09.2019 19:08 18,2 C 17,2 C 16,1 C 96 % 1008,5 hPa 0,0 l/m 0 min 2 min 0 W/m 6,4 km/h (2 Bft) 93,62 %
26.09.2019 19:10 18,2 C 17,2 C 16,1 C 96 % 1008,5 hPa 0,0 l/m 0 min 2 min 0 W/m 12,9 km/h (3 Bft) 100,00 %
26.09.2019 19:12 18,2 C 16,7 C 16,1 C 95 % 1008,5 hPa 0,0 l/m 0 min 2 min 0 W/m 16,1 km/h (3 Bft) 100,00 %
26.09.2019 19:14 18,2 C 16,7 C 16,1 C 95 % 1008,5 hPa 0,0 l/m 0 min 2 min 0 W/m 12,9 km/h (3 Bft) 97,87 %
26.09.2019 19:16 18,2 C 16,7 C 16,1 C 95 % 1008,6 hPa 0,0 l/m 0 min 2 min 0 W/m 19,3 km/h (3 Bft) 95,65 %
26.09.2019 19:18 18,2 C 16,7 C 16,1 C 95 % 1008,5 hPa 0,0 l/m 0 min 0 min 0 W/m 6,4 km/h (2 Bft) 97,87 %
26.09.2019 19:20 18,2 C 16,7 C 16,1 C 95 % 1008,5 hPa 0,0 l/m 0 min 0 min 0 W/m 12,9 km/h (3 Bft) 100,00 %
26.09.2019 19:22 18,2 C 16,7 C 16,1 C 95 % 1008,6 hPa 0,0 l/m 0 min 0 min 0 W/m 16,1 km/h (3 Bft) 100,00 %
26.09.2019 19:24 18,2 C 16,7 C 16,1 C 95 % 1008,5 hPa 0,0 l/m 0 min 0 min 0 W/m 12,9 km/h (3 Bft) 100,00 %
26.09.2019 19:26 18,2 C 16,7 C 16,1 C 95 % 1008,5 hPa 0,0 l/m 0 min 0 min 0 W/m 6,4 km/h (2 Bft) 95,74 %
26.09.2019 19:28 18,2 C 16,7 C 16,1 C 95 % 1008,5 hPa 0,0 l/m 0 min 0 min 0 W/m 16,1 km/h (3 Bft) 95,65 %
26.09.2019 19:30 18,2 C 16,7 C 16,1 C 95 % 1008,4 hPa 0,0 l/m 0 min 0 min 0 W/m 19,3 km/h (3 Bft) 95,74 %
26.09.2019 19:32 18,2 C 16,7 C 16,1 C 95 % 1008,4 hPa 0,0 l/m 0 min 0 min 0 W/m 12,9 km/h (3 Bft) 95,74 %
26.09.2019 19:34 18,1 C 17,2 C 16,1 C 95 % 1008,4 hPa 0,0 l/m 0 min 0 min 0 W/m 12,9 km/h (3 Bft) 97,87 %
26.09.2019 19:36 18,1 C 17,2 C 16,1 C 95 % 1008,4 hPa 0,0 l/m 0 min 0 min 0 W/m 16,1 km/h (3 Bft) 97,87 %
26.09.2019 19:38 18,1 C 17,2 C 16,1 C 95 % 1008,4 hPa 0,0 l/m 0 min 0 min 0 W/m 12,9 km/h (3 Bft) 97,83 %
26.09.2019 19:40 18,1 C 17,2 C 16,1 C 95 % 1008,3 hPa 0,0 l/m 0 min 0 min 0 W/m 16,1 km/h (3 Bft) 97,87 %
26.09.2019 19:42 18,1 C 17,2 C 16,1 C 95 % 1008,4 hPa 0,0 l/m 0 min 0 min 0 W/m 19,3 km/h (3 Bft) 97,87 %
26.09.2019 19:44 18,1 C 17,2 C 16,1 C 95 % 1008,4 hPa 0,0 l/m 0 min 0 min 0 W/m 16,1 km/h (3 Bft) 97,87 %
26.09.2019 19:46 18,1 C 17,2 C 16,1 C 95 % 1008,4 hPa 0,0 l/m 0 min 0 min 0 W/m 12,9 km/h (3 Bft) 97,87 %
26.09.2019 19:48 18,1 C 17,2 C 16,1 C 94 % 1008,4 hPa 0,0 l/m 0 min 2 min 0 W/m 12,9 km/h (3 Bft) 97,87 %
26.09.2019 19:50 18,1 C 17,2 C 16,1 C 94 % 1008,3 hPa 0,0 l/m 0 min 0 min 0 W/m 12,9 km/h (3 Bft) 97,83 %
26.09.2019 19:52 18,1 C 17,2 C 16,1 C 94 % 1008,4 hPa 0,0 l/m 0 min 2 min 0 W/m 12,9 km/h (3 Bft) 97,87 %
26.09.2019 19:54 18,1 C 17,2 C 16,1 C 94 % 1008,4 hPa 0,0 l/m 0 min 2 min 0 W/m 16,1 km/h (3 Bft) 97,87 %
26.09.2019 19:56 18,1 C 17,2 C 16,1 C 94 % 1008,5 hPa 0,0 l/m 0 min 0 min 0 W/m 6,4 km/h (2 Bft) 97,87 %
26.09.2019 19:58 18,1 C 17,2 C 16,1 C 94 % 1008,4 hPa 0,0 l/m 0 min 0 min 0 W/m 16,1 km/h (3 Bft) 97,87 %
26.09.2019 20:00 18,1 C 17,2 C 16,1 C 94 % 1008,4 hPa 0,0 l/m 0 min 0 min 0 W/m 12,9 km/h (3 Bft) 97,62 %
26.09.2019 20:02 18,1 C 17,2 C 16,1 C 94 % 1008,4 hPa 0,0 l/m 0 min 0 min 0 W/m 16,1 km/h (3 Bft) 95,92 %
26.09.2019 20:04 18,1 C 17,2 C 16,1 C 94 % 1008,4 hPa 0,0 l/m 0 min 0 min 0 W/m 6,4 km/h (2 Bft) 97,96 %
26.09.2019 20:06 18,1 C 17,2 C 16,1 C 94 % 1008,4 hPa 0,0 l/m 0 min 0 min 0 W/m 12,9 km/h (3 Bft) 95,74 %
26.09.2019 20:08 18,1 C 17,2 C 16,1 C 94 % 1008,4 hPa 0,0 l/m 0 min 0 min 0 W/m 19,3 km/h (3 Bft) 97,87 %
26.09.2019 20:10 18,1 C 17,2 C 16,1 C 94 % 1008,4 hPa 0,0 l/m 0 min 0 min 0 W/m 12,9 km/h (3 Bft) 97,87 %
26.09.2019 20:12 18,1 C 17,2 C 16,1 C 93 % 1008,4 hPa 0,0 l/m 0 min 0 min 0 W/m 16,1 km/h (3 Bft) 97,87 %
26.09.2019 20:14 18,1 C 17,2 C 16,1 C 93 % 1008,4 hPa 0,0 l/m 0 min 0 min 0 W/m 12,9 km/h (3 Bft) 97,83 %
26.09.2019 20:16 18,1 C 17,2 C 16,1 C 94 % 1008,4 hPa 0,0 l/m 0 min 0 min 0 W/m 6,4 km/h (2 Bft) 95,74 %
26.09.2019 20:18 18,1 C 17,2 C 16,1 C 93 % 1008,3 hPa 0,0 l/m 0 min 0 min 0 W/m 19,3 km/h (3 Bft) 97,87 %
26.09.2019 20:20 18,1 C 17,2 C 16,1 C 93 % 1008,4 hPa 0,0 l/m 0 min 0 min 0 W/m 12,9 km/h (3 Bft) 97,87 %
26.09.2019 20:22 18,1 C 17,2 C 16,1 C 93 % 1008,3 hPa 0,0 l/m 0 min 0 min 0 W/m 12,9 km/h (3 Bft) 97,62 %
26.09.2019 20:24 18,1 C 17,2 C 16,1 C 93 % 1008,3 hPa 0,0 l/m 0 min 0 min 0 W/m 16,1 km/h (3 Bft) 100,00 %
26.09.2019 20:26 18,1 C 17,2 C 16,1 C 93 % 1008,3 hPa 0,0 l/m 0 min 0 min 0 W/m 19,3 km/h (3 Bft) 100,00 %
26.09.2019 20:28 18,1 C 17,2 C 16,1 C 93 % 1008,4 hPa 0,0 l/m 0 min 0 min 0 W/m 16,1 km/h (3 Bft) 100,00 %
26.09.2019 20:30 18,1 C 17,2 C 16,1 C 93 % 1008,4 hPa 0,0 l/m 0 min 0 min 0 W/m 12,9 km/h (3 Bft) 100,00 %
26.09.2019 20:32 18,1 C 17,2 C 16,1 C 93 % 1008,3 hPa 0,0 l/m 0 min 0 min 0 W/m 12,9 km/h (3 Bft) 97,87 %
26.09.2019 20:34 18,1 C 17,2 C 16,1 C 93 % 1008,4 hPa 0,0 l/m 0 min 0 min 0 W/m 16,1 km/h (3 Bft) 100,00 %
26.09.2019 20:36 18,1 C 17,2 C 16,1 C 93 % 1008,4 hPa 0,0 l/m 0 min 0 min 0 W/m 12,9 km/h (3 Bft) 100,00 %
26.09.2019 20:38 18,1 C 17,2 C 16,1 C 93 % 1008,4 hPa 0,0 l/m 0 min 0 min 0 W/m 22,5 km/h (4 Bft) 100,00 %
26.09.2019 20:40 18,1 C 17,2 C 16,1 C 93 % 1008,4 hPa 0,0 l/m 0 min 0 min 0 W/m 12,9 km/h (3 Bft) 97,92 %
26.09.2019 20:42 18,0 C 17,2 C 16,1 C 93 % 1008,4 hPa 0,0 l/m 0 min 0 min 0 W/m 16,1 km/h (3 Bft) 100,00 %
26.09.2019 20:44 18,1 C 17,2 C 16,1 C 93 % 1008,4 hPa 0,0 l/m 0 min 0 min 0 W/m 19,3 km/h (3 Bft) 100,00 %
26.09.2019 20:46 18,0 C 17,2 C 16,1 C 93 % 1008,4 hPa 0,0 l/m 0 min 0 min 0 W/m 16,1 km/h (3 Bft) 100,00 %
26.09.2019 20:48 18,1 C 17,2 C 16,1 C 92 % 1008,6 hPa 0,0 l/m 0 min 0 min 0 W/m 16,1 km/h (3 Bft) 100,00 %
26.09.2019 20:50 18,1 C 17,2 C 16,1 C 92 % 1008,6 hPa 0,0 l/m 0 min 0 min 0 W/m 19,3 km/h (3 Bft) 100,00 %
26.09.2019 20:52 18,1 C 17,2 C 16,1 C 92 % 1008,6 hPa 0,0 l/m 0 min 0 min 0 W/m 16,1 km/h (3 Bft) 100,00 %
26.09.2019 20:54 18,1 C 17,2 C 16,1 C 92 % 1008,6 hPa 0,0 l/m 0 min 0 min 0 W/m 19,3 km/h (3 Bft) 100,00 %
26.09.2019 20:56 18,1 C 17,8 C 16,1 C 92 % 1008,6 hPa 0,0 l/m 0 min 0 min 0 W/m 25,7 km/h (4 Bft) 97,87 %
26.09.2019 20:58 18,1 C 17,8 C 16,1 C 92 % 1008,7 hPa 0,0 l/m 0 min 0 min 0 W/m 22,5 km/h (4 Bft) 95,74 %
26.09.2019 21:00 18,1 C 17,2 C 16,1 C 92 % 1008,6 hPa 0,0 l/m 0 min 0 min 0 W/m 16,1 km/h (3 Bft) 97,83 %
26.09.2019 21:02 18,1 C 17,8 C 16,1 C 92 % 1008,6 hPa 0,0 l/m 0 min 0 min 0 W/m 22,5 km/h (4 Bft) 97,87 %
26.09.2019 21:04 18,1 C 17,8 C 16,1 C 92 % 1008,6 hPa 0,0 l/m 0 min 0 min 0 W/m 22,5 km/h (4 Bft) 95,74 %
26.09.2019 21:06 18,1 C 17,8 C 16,1 C 92 % 1008,6 hPa 0,0 l/m 0 min 0 min 0 W/m 22,5 km/h (4 Bft) 97,87 %
26.09.2019 21:08 18,1 C 17,8 C 16,1 C 92 % 1008,7 hPa 0,0 l/m 0 min 0 min 0 W/m 22,5 km/h (4 Bft) 95,74 %
26.09.2019 21:10 18,1 C 17,8 C 16,1 C 91 % 1008,6 hPa 0,0 l/m 0 min 0 min 0 W/m 22,5 km/h (4 Bft) 95,74 %
26.09.2019 21:12 18,1 C 17,8 C 16,1 C 91 % 1008,6 hPa 0,0 l/m 0 min 0 min 0 W/m 25,7 km/h (4 Bft) 93,48 %
26.09.2019 21:14 18,1 C 17,8 C 16,1 C 91 % 1008,6 hPa 0,0 l/m 0 min 0 min 0 W/m 29,0 km/h (5 Bft) 93,62 %
26.09.2019 21:16 18,1 C 17,8 C 16,1 C 91 % 1008,7 hPa 0,0 l/m 0 min 0 min 0 W/m 22,5 km/h (4 Bft) 93,62 %
26.09.2019 21:18 18,1 C 17,2 C 16,1 C 91 % 1008,6 hPa 0,0 l/m 0 min 2 min 0 W/m 16,1 km/h (3 Bft) 95,74 %
26.09.2019 21:20 18,1 C 16,7 C 16,1 C 91 % 1008,6 hPa 0,0 l/m 0 min 2 min 0 W/m 19,3 km/h (3 Bft) 93,62 %
26.09.2019 21:22 18,1 C 16,1 C 16,1 C 91 % 1008,6 hPa 0,0 l/m 0 min 2 min 0 W/m 22,5 km/h (4 Bft) 93,62 %
26.09.2019 21:24 18,1 C 16,1 C 16,1 C 91 % 1008,6 hPa 0,0 l/m 0 min 0 min 0 W/m 22,5 km/h (4 Bft) 95,65 %
26.09.2019 21:26 18,1 C 16,7 C 16,1 C 91 % 1008,6 hPa 0,0 l/m 0 min 0 min 0 W/m 16,1 km/h (3 Bft) 93,62 %
26.09.2019 21:28 18,1 C 17,2 C 16,1 C 91 % 1008,6 hPa 0,0 l/m 0 min 0 min 0 W/m 19,3 km/h (3 Bft) 93,62 %
26.09.2019 21:30 18,1 C 17,2 C 16,1 C 91 % 1008,6 hPa 0,0 l/m 0 min 0 min 0 W/m 29,0 km/h (5 Bft) 93,62 %
26.09.2019 21:32 18,1 C 17,2 C 16,1 C 91 % 1008,6 hPa 0,0 l/m 0 min 0 min 0 W/m 12,9 km/h (3 Bft) 95,74 %
26.09.2019 21:34 18,1 C 17,2 C 16,1 C 91 % 1008,6 hPa 0,0 l/m 0 min 0 min 0 W/m 19,3 km/h (3 Bft) 95,74 %
26.09.2019 21:36 18,1 C 17,2 C 16,1 C 91 % 1008,7 hPa 0,0 l/m 0 min 0 min 0 W/m 22,5 km/h (4 Bft) 95,65 %
26.09.2019 21:38 18,1 C 16,7 C 16,1 C 91 % 1008,7 hPa 0,0 l/m 0 min 2 min 0 W/m 35,4 km/h (5 Bft) 95,74 %
26.09.2019 21:40 18,1 C 16,1 C 16,1 C 91 % 1008,6 hPa 0,0 l/m 0 min 2 min 0 W/m 22,5 km/h (4 Bft) 95,74 %
26.09.2019 21:42 18,1 C 16,1 C 16,1 C 91 % 1008,7 hPa 0,0 l/m 0 min 2 min 0 W/m 29,0 km/h (5 Bft) 97,87 %
26.09.2019 21:44 18,1 C 16,1 C 16,1 C 91 % 1008,7 hPa 0,0 l/m 0 min 2 min 0 W/m 22,5 km/h (4 Bft) 97,62 %
26.09.2019 21:46 18,1 C 16,1 C 16,1 C 91 % 1008,6 hPa 0,0 l/m 0 min 2 min 0 W/m 12,9 km/h (3 Bft) 97,87 %
26.09.2019 21:48 18,1 C 16,7 C 16,1 C 91 % 1008,6 hPa 0,0 l/m 0 min 0 min 0 W/m 19,3 km/h (3 Bft) 97,92 %
26.09.2019 21:50 18,1 C 16,1 C 16,1 C 91 % 1008,8 hPa 0,0 l/m 0 min 2 min 0 W/m 25,7 km/h (4 Bft) 95,74 %
26.09.2019 21:52 18,1 C 15,6 C 16,1 C 91 % 1008,7 hPa 0,0 l/m 0 min 2 min 0 W/m 19,3 km/h (3 Bft) 97,87 %
26.09.2019 21:54 18,1 C 15,6 C 16,1 C 91 % 1008,7 hPa 0,0 l/m 0 min 2 min 0 W/m 22,5 km/h (4 Bft) 95,83 %
26.09.2019 21:56 18,0 C 15,6 C 16,1 C 91 % 1008,7 hPa 0,0 l/m 0 min 2 min 0 W/m 25,7 km/h (4 Bft) 97,83 %
26.09.2019 21:58 18,0 C 15,6 C 16,1 C 92 % 1008,9 hPa 0,0 l/m 0 min 0 min 0 W/m 32,2 km/h (5 Bft) 96,00 %
26.09.2019 22:00 17,9 C 15,6 C 16,1 C 92 % 1008,9 hPa 0,0 l/m 0 min 0 min 0 W/m 38,6 km/h (5 Bft) 97,83 %
26.09.2019 22:02 17,9 C 15,6 C 16,1 C 92 % 1008,8 hPa 0,0 l/m 0 min 0 min 0 W/m 32,2 km/h (5 Bft) 97,87 %
26.09.2019 22:04 17,9 C 15,6 C 16,1 C 92 % 1008,9 hPa 0,0 l/m 0 min 0 min 0 W/m 25,7 km/h (4 Bft) 100,00 %
26.09.2019 22:06 17,8 C 15,6 C 16,1 C 92 % 1008,7 hPa 0,0 l/m 0 min 2 min 0 W/m 25,7 km/h (4 Bft) 100,00 %
26.09.2019 22:08 17,8 C 15,6 C 16,1 C 92 % 1008,7 hPa 0,0 l/m 0 min 0 min 0 W/m 22,5 km/h (4 Bft) 100,00 %
26.09.2019 22:10 17,8 C 15,6 C 16,1 C 92 % 1008,7 hPa 0,0 l/m 0 min 0 min 0 W/m 25,7 km/h (4 Bft) 100,00 %
26.09.2019 22:12 17,8 C 15,6 C 16,1 C 92 % 1008,7 hPa 0,0 l/m 0 min 0 min 0 W/m 19,3 km/h (3 Bft) 97,62 %
26.09.2019 22:14 17,7 C 15,6 C 16,1 C 93 % 1008,6 hPa 0,0 l/m 0 min 0 min 0 W/m 19,3 km/h (3 Bft) 100,00 %
26.09.2019 22:16 17,7 C 15,6 C 16,1 C 93 % 1008,6 hPa 0,0 l/m 0 min 0 min 0 W/m 19,3 km/h (3 Bft) 100,00 %
26.09.2019 22:18 17,7 C 15,6 C 16,1 C 93 % 1008,7 hPa 0,0 l/m 0 min 2 min 0 W/m 22,5 km/h (4 Bft) 97,92 %
26.09.2019 22:20 17,7 C 15,6 C 16,1 C 93 % 1008,6 hPa 0,0 l/m 0 min 2 min 0 W/m 22,5 km/h (4 Bft) 97,87 %
26.09.2019 22:22 17,6 C 15,6 C 16,1 C 93 % 1008,7 hPa 0,0 l/m 0 min 2 min 0 W/m 25,7 km/h (4 Bft) 95,74 %
26.09.2019 22:24 17,6 C 15,6 C 16,1 C 93 % 1008,6 hPa 0,0 l/m 0 min 0 min 0 W/m 25,7 km/h (4 Bft) 100,00 %
26.09.2019 22:26 17,6 C 15,6 C 16,1 C 93 % 1008,7 hPa 0,0 l/m 0 min 0 min 0 W/m 19,3 km/h (3 Bft) 100,00 %
26.09.2019 22:28 17,6 C 15,6 C 16,1 C 93 % 1008,9 hPa 0,0 l/m 0 min 0 min 0 W/m 25,7 km/h (4 Bft) 97,87 %
26.09.2019 22:30 17,5 C 15,6 C 16,1 C 93 % 1008,8 hPa 0,0 l/m 0 min 0 min 0 W/m 19,3 km/h (3 Bft) 97,87 %
26.09.2019 22:32 17,5 C 15,6 C 16,1 C 93 % 1008,7 hPa 0,0 l/m 0 min 0 min 0 W/m 16,1 km/h (3 Bft) 97,87 %
26.09.2019 22:34 17,5 C 15,6 C 16,1 C 93 % 1008,8 hPa 0,0 l/m 0 min 0 min 0 W/m 22,5 km/h (4 Bft) 100,00 %
26.09.2019 22:36 17,5 C 15,6 C 16,1 C 93 % 1008,7 hPa 0,0 l/m 0 min 0 min 0 W/m 22,5 km/h (4 Bft) 100,00 %
26.09.2019 22:38 17,4 C 16,1 C 16,1 C 94 % 1008,7 hPa 0,0 l/m 0 min 0 min 0 W/m 29,0 km/h (5 Bft) 97,87 %
26.09.2019 22:40 17,4 C 16,1 C 16,1 C 94 % 1008,7 hPa 0,0 l/m 0 min 0 min 0 W/m 22,5 km/h (4 Bft) 93,62 %
26.09.2019 22:42 17,4 C 16,1 C 16,1 C 94 % 1008,8 hPa 0,0 l/m 0 min 0 min 0 W/m 22,5 km/h (4 Bft) 97,87 %
26.09.2019 22:44 17,4 C 16,1 C 16,1 C 94 % 1008,8 hPa 0,0 l/m 0 min 0 min 0 W/m 19,3 km/h (3 Bft) 95,74 %
26.09.2019 22:46 17,4 C 16,1 C 16,1 C 94 % 1008,7 hPa 0,0 l/m 0 min 0 min 0 W/m 25,7 km/h (4 Bft) 97,83 %
26.09.2019 22:48 17,4 C 16,1 C 16,1 C 94 % 1008,8 hPa 0,0 l/m 0 min 0 min 0 W/m 25,7 km/h (4 Bft) 97,87 %
26.09.2019 22:50 17,4 C 16,1 C 16,1 C 94 % 1008,9 hPa 0,0 l/m 0 min 0 min 0 W/m 22,5 km/h (4 Bft) 97,87 %
26.09.2019 22:52 17,4 C 16,1 C 16,1 C 94 % 1008,9 hPa 0,0 l/m 0 min 0 min 0 W/m 32,2 km/h (5 Bft) 97,87 %
26.09.2019 22:54 17,4 C 16,1 C 16,1 C 94 % 1008,8 hPa 0,0 l/m 0 min 0 min 0 W/m 25,7 km/h (4 Bft) 97,62 %
26.09.2019 22:56 17,4 C 16,1 C 16,1 C 94 % 1008,9 hPa 0,0 l/m 0 min 0 min 0 W/m 35,4 km/h (5 Bft) 97,83 %
26.09.2019 22:58 17,4 C 16,1 C 16,1 C 94 % 1008,8 hPa 0,0 l/m 0 min 0 min 0 W/m 22,5 km/h (4 Bft) 97,87 %
26.09.2019 23:00 17,4 C 16,1 C 16,1 C 94 % 1008,9 hPa 0,0 l/m 0 min 0 min 0 W/m 19,3 km/h (3 Bft) 97,87 %
26.09.2019 23:02 17,4 C 16,1 C 16,1 C 94 % 1008,9 hPa 0,0 l/m 0 min 0 min 0 W/m 25,7 km/h (4 Bft) 95,74 %
26.09.2019 23:04 17,4 C 16,1 C 16,1 C 94 % 1009,0 hPa 0,0 l/m 0 min 0 min 0 W/m 29,0 km/h (5 Bft) 97,87 %
26.09.2019 23:06 17,4 C 16,1 C 16,1 C 94 % 1009,0 hPa 0,0 l/m 0 min 0 min 0 W/m 22,5 km/h (4 Bft) 97,87 %
26.09.2019 23:08 17,4 C 16,1 C 16,1 C 94 % 1008,9 hPa 0,0 l/m 0 min 0 min 0 W/m 22,5 km/h (4 Bft) 97,83 %
26.09.2019 23:10 17,4 C 16,1 C 16,1 C 94 % 1008,9 hPa 0,0 l/m 0 min 0 min 0 W/m 35,4 km/h (5 Bft) 95,74 %
26.09.2019 23:12 17,4 C 16,1 C 16,1 C 94 % 1008,9 hPa 0,0 l/m 0 min 0 min 0 W/m 35,4 km/h (5 Bft) 100,00 %
26.09.2019 23:14 17,4 C 16,1 C 16,1 C 94 % 1008,9 hPa 0,0 l/m 0 min 0 min 0 W/m 25,7 km/h (4 Bft) 95,74 %
26.09.2019 23:16 17,4 C 16,1 C 16,1 C 94 % 1008,9 hPa 0,0 l/m 0 min 0 min 0 W/m 19,3 km/h (3 Bft) 97,87 %
26.09.2019 23:18 17,4 C 16,1 C 16,1 C 94 % 1008,9 hPa 0,0 l/m 0 min 0 min 0 W/m 25,7 km/h (4 Bft) 97,87 %
26.09.2019 23:20 17,4 C 16,1 C 16,1 C 94 % 1008,8 hPa 0,0 l/m 0 min 0 min 0 W/m 25,7 km/h (4 Bft) 94,44 %
26.09.2019 23:22 17,4 C 16,1 C 16,1 C 93 % 1008,9 hPa 0,0 l/m 0 min 0 min 0 W/m 16,1 km/h (3 Bft) 97,87 %
26.09.2019 23:24 17,4 C 16,1 C 16,1 C 93 % 1008,9 hPa 0,0 l/m 0 min 0 min 0 W/m 16,1 km/h (3 Bft) 97,87 %
26.09.2019 23:26 17,4 C 16,7 C 16,1 C 93 % 1008,9 hPa 0,0 l/m 0 min 0 min 0 W/m 25,7 km/h (4 Bft) 97,87 %
26.09.2019 23:28 17,4 C 16,1 C 16,1 C 93 % 1008,9 hPa 0,0 l/m 0 min 0 min 0 W/m 22,5 km/h (4 Bft) 97,87 %
26.09.2019 23:30 17,4 C 16,7 C 16,1 C 93 % 1008,8 hPa 0,0 l/m 0 min 0 min 0 W/m 19,3 km/h (3 Bft) 97,87 %
26.09.2019 23:32 17,4 C 16,7 C 16,1 C 93 % 1008,9 hPa 0,0 l/m 0 min 0 min 0 W/m 25,7 km/h (4 Bft) 100,00 %
26.09.2019 23:34 17,4 C 16,7 C 16,1 C 93 % 1008,9 hPa 0,0 l/m 0 min 0 min 0 W/m 29,0 km/h (5 Bft) 97,87 %
26.09.2019 23:36 17,4 C 16,7 C 16,1 C 93 % 1008,9 hPa 0,0 l/m 0 min 0 min 0 W/m 19,3 km/h (3 Bft) 97,87 %
26.09.2019 23:38 17,5 C 16,7 C 16,1 C 93 % 1008,9 hPa 0,0 l/m 0 min 0 min 0 W/m 25,7 km/h (4 Bft) 97,87 %
26.09.2019 23:40 17,5 C 16,7 C 16,1 C 93 % 1008,9 hPa 0,0 l/m 0 min 0 min 0 W/m 19,3 km/h (3 Bft) 97,87 %
26.09.2019 23:42 17,5 C 16,7 C 16,1 C 93 % 1009,0 hPa 0,0 l/m 0 min 0 min 0 W/m 22,5 km/h (4 Bft) 97,83 %
26.09.2019 23:44 17,5 C 16,7 C 16,1 C 93 % 1008,9 hPa 0,0 l/m 0 min 0 min 0 W/m 19,3 km/h (3 Bft) 97,87 %
26.09.2019 23:46 17,5 C 16,7 C 16,1 C 92 % 1008,9 hPa 0,0 l/m 0 min 0 min 0 W/m 25,7 km/h (4 Bft) 97,87 %
26.09.2019 23:48 17,6 C 16,7 C 16,1 C 92 % 1009,0 hPa 0,0 l/m 0 min 0 min 0 W/m 22,5 km/h (4 Bft) 93,62 %
26.09.2019 23:50 17,6 C 17,2 C 16,1 C 92 % 1009,1 hPa 0,0 l/m 0 min 2 min 0 W/m 29,0 km/h (5 Bft) 97,87 %
26.09.2019 23:52 17,6 C 17,2 C 16,1 C 92 % 1009,2 hPa 0,0 l/m 0 min 0 min 0 W/m 16,1 km/h (3 Bft) 95,74 %
26.09.2019 23:54 17,6 C 16,1 C 16,1 C 92 % 1009,7 hPa 0,0 l/m 0 min 2 min 0 W/m 25,7 km/h (4 Bft) 97,87 %
26.09.2019 23:56 17,5 C 14,4 C 16,1 C 92 % 1009,8 hPa 0,0 l/m 0 min 2 min 0 W/m 25,7 km/h (4 Bft) 97,83 %
26.09.2019 23:58 17,3 C 14,4 C 16,1 C 91 % 1009,9 hPa 0,0 l/m 0 min 2 min 0 W/m 22,5 km/h (4 Bft) 95,74 %
_ Min-Zeit 07:48 07:22 08:02 05:50 00:18 - - - - 16:18 08:30
Minimum _ 14,6 C 13,3 C 12,8 C 88 % 1006,9 hPa - - - - 0,0 km/h (0 Bft) 91,30 %
_ Max-Zeit 18:24 11:24 11:18 16:18 15:58 11:50 00:00 12:08 11:26 22:00 00:10
Maximum _ 18,2 C 17,8 C 16,7 C 99 % 1012,7 hPa 0,2 l/m 0 min 4 min 215 W/m 38,6 km/h
S-SO (5 Bft)
100,00 %
Durchschnitt _ 16,5 C 15,7 C 15,1 C 93 % 1008,8 hPa #3,0 l/m #0 min. #3:12 h 68 W/m 12,6 km/h (3 Bft) 97,43 %
© 2019 W. Hausmann